Time,TemperatureF,DewpointF,PressureIn,WindDirection,WindDirectionDegrees,WindSpeedMPH,WindSpeedGustMPH,Humidity,HourlyPrecipIn,Conditions,Clouds,dailyrainin,SoftwareType,DateUTC
2013-06-04 00:00:00,53.6,48.2,29.06,East,82,0.0,0.0,82,0.00,,---,0.00,VWS V14.00,2013-06-04 05:00:00,
2013-06-04 00:01:00,53.6,48.2,29.06,East,82,0.0,0.0,82,0.00,,---,0.00,VWS V14.00,2013-06-04 05:01:00,
2013-06-04 00:02:00,53.6,48.2,29.06,East,82,0.0,0.0,82,0.00,,---,0.00,VWS V14.00,2013-06-04 05:02:00,
2013-06-04 00:03:00,53.6,48.2,29.06,East,82,0.0,0.0,82,0.00,,---,0.00,VWS V14.00,2013-06-04 05:03:00,
2013-06-04 00:04:00,53.6,48.2,29.06,East,82,0.0,0.0,82,0.00,,---,0.00,VWS V14.00,2013-06-04 05:04:00,
2013-06-04 00:05:00,53.4,48.7,29.06,East,82,0.0,0.0,84,0.00,,---,0.00,VWS V14.00,2013-06-04 05:05:00,
2013-06-04 00:06:00,53.4,48.7,29.06,East,82,0.0,0.0,84,0.00,,---,0.00,VWS V14.00,2013-06-04 05:06:00,
2013-06-04 00:07:00,53.2,48.5,29.06,East,82,0.0,0.0,84,0.00,,---,0.00,VWS V14.00,2013-06-04 05:07:00,
2013-06-04 00:08:00,53.2,48.5,29.06,East,82,0.0,0.0,84,0.00,,---,0.00,VWS V14.00,2013-06-04 05:08:00,
2013-06-04 00:09:00,53.2,48.5,29.06,East,82,0.0,0.0,84,0.00,,---,0.00,VWS V14.00,2013-06-04 05:09:00,
2013-06-04 00:10:00,53.1,48.4,29.06,East,82,0.0,0.0,84,0.00,,---,0.00,VWS V14.00,2013-06-04 05:10:00,
2013-06-04 00:11:00,53.1,48.4,29.06,East,82,0.0,0.0,84,0.00,,---,0.00,VWS V14.00,2013-06-04 05:11:00,
2013-06-04 00:12:00,53.1,48.4,29.06,East,82,0.0,0.0,84,0.00,,---,0.00,VWS V14.00,2013-06-04 05:12:00,
2013-06-04 00:13:00,53.1,48.4,29.06,East,82,0.0,0.0,84,0.00,,---,0.00,VWS V14.00,2013-06-04 05:13:00,
2013-06-04 00:14:00,53.1,48.4,29.06,East,82,0.0,0.0,84,0.00,,---,0.00,VWS V14.00,2013-06-04 05:14:00,
2013-06-04 00:15:00,52.9,48.2,29.06,East,82,0.0,0.0,84,0.00,,---,0.00,VWS V14.00,2013-06-04 05:15:00,
2013-06-04 00:16:00,52.9,48.2,29.06,East,82,0.0,0.0,84,0.00,,---,0.00,VWS V14.00,2013-06-04 05:16:00,
2013-06-04 00:17:00,52.7,48.0,29.06,East,82,0.0,0.0,84,0.00,,---,0.00,VWS V14.00,2013-06-04 05:17:00,
2013-06-04 00:18:00,52.7,48.0,29.06,East,82,0.0,0.0,84,0.00,,---,0.00,VWS V14.00,2013-06-04 05:18:00,
2013-06-04 00:19:00,52.7,48.0,29.06,East,82,0.0,0.0,84,0.00,,---,0.00,VWS V14.00,2013-06-04 05:19:00,
2013-06-04 00:20:00,52.7,48.0,29.06,East,82,0.0,0.0,84,0.00,,---,0.00,VWS V14.00,2013-06-04 05:20:00,
2013-06-04 00:21:00,52.5,47.8,29.06,East,82,0.0,0.0,84,0.00,,---,0.00,VWS V14.00,2013-06-04 05:21:00,
2013-06-04 00:22:00,52.5,47.8,29.09,East,82,0.0,0.0,84,0.00,,---,0.00,VWS V14.00,2013-06-04 05:22:00,
2013-06-04 00:23:00,52.5,47.8,29.09,East,82,0.0,0.0,84,0.00,,---,0.00,VWS V14.00,2013-06-04 05:23:00,
2013-06-04 00:24:00,52.5,47.8,29.09,East,82,0.0,0.0,84,0.00,,---,0.00,VWS V14.00,2013-06-04 05:24:00,
2013-06-04 00:25:00,52.5,48.5,29.09,East,82,0.0,0.0,86,0.00,,---,0.00,VWS V14.00,2013-06-04 05:25:00,
2013-06-04 00:26:00,52.5,48.5,29.09,East,82,0.0,0.0,86,0.00,,---,0.00,VWS V14.00,2013-06-04 05:26:00,
2013-06-04 00:27:00,52.5,49.1,29.09,East,82,0.0,0.0,88,0.00,,---,0.00,VWS V14.00,2013-06-04 05:27:00,
2013-06-04 00:28:00,52.5,49.1,29.09,East,82,0.0,0.0,88,0.00,,---,0.00,VWS V14.00,2013-06-04 05:28:00,
2013-06-04 00:29:00,52.5,49.1,29.09,East,82,0.0,0.0,88,0.00,,---,0.00,VWS V14.00,2013-06-04 05:29:00,
2013-06-04 00:30:00,52.5,49.1,29.09,East,82,0.0,0.0,88,0.00,,---,0.00,VWS V14.00,2013-06-04 05:30:00,
2013-06-04 00:31:00,52.5,49.1,29.09,East,82,0.0,0.0,88,0.00,,---,0.00,VWS V14.00,2013-06-04 05:31:00,
2013-06-04 00:32:00,52.7,49.8,29.09,NNE,32,0.0,0.0,90,0.00,,---,0.00,VWS V14.00,2013-06-04 05:32:00,
2013-06-04 00:33:00,52.7,49.8,29.09,East,82,0.0,0.0,90,0.00,,---,0.00,VWS V14.00,2013-06-04 05:33:00,
2013-06-04 00:34:00,52.9,50.0,29.09,NNE,32,0.0,0.0,90,0.00,,---,0.00,VWS V14.00,2013-06-04 05:34:00,
2013-06-04 00:35:00,52.9,50.6,29.09,NNE,32,0.0,0.0,92,0.00,,---,0.00,VWS V14.00,2013-06-04 05:35:00,
2013-06-04 00:36:00,53.1,50.8,29.09,NNE,32,0.0,0.0,92,0.00,,---,0.00,VWS V14.00,2013-06-04 05:36:00,
2013-06-04 00:37:00,53.1,50.8,29.09,NNE,31,0.0,0.0,92,0.00,,---,0.00,VWS V14.00,2013-06-04 05:37:00,
2013-06-04 00:38:00,53.1,50.8,29.09,NNE,31,0.0,0.0,92,0.00,,---,0.00,VWS V14.00,2013-06-04 05:38:00,
2013-06-04 00:39:00,53.2,51.0,29.09,NNE,31,0.0,0.0,92,0.00,,---,0.00,VWS V14.00,2013-06-04 05:39:00,
2013-06-04 00:40:00,53.2,51.0,29.09,NNE,31,0.0,0.0,92,0.00,,---,0.00,VWS V14.00,2013-06-04 05:40:00,
2013-06-04 00:41:00,53.2,51.0,29.09,NNE,31,0.0,0.0,92,0.00,,---,0.00,VWS V14.00,2013-06-04 05:41:00,
2013-06-04 00:42:00,53.2,51.0,29.09,NNE,31,0.0,0.0,92,0.00,,---,0.00,VWS V14.00,2013-06-04 05:42:00,
2013-06-04 00:43:00,53.2,51.0,29.09,NNE,31,0.0,0.0,92,0.00,,---,0.00,VWS V14.00,2013-06-04 05:43:00,
2013-06-04 00:44:00,53.2,51.0,29.09,NNE,31,0.0,0.0,92,0.00,,---,0.00,VWS V14.00,2013-06-04 05:44:00,
2013-06-04 00:45:00,53.2,51.0,29.09,NNE,31,0.0,0.0,92,0.00,,---,0.00,VWS V14.00,2013-06-04 05:45:00,
2013-06-04 00:46:00,53.4,51.2,29.09,NNE,31,0.0,0.0,92,0.00,,---,0.00,VWS V14.00,2013-06-04 05:46:00,
2013-06-04 00:47:00,53.4,51.2,29.09,NNE,31,0.0,0.0,92,0.00,,---,0.00,VWS V14.00,2013-06-04 05:47:00,
2013-06-04 00:48:00,53.4,51.2,29.09,NNE,31,0.0,0.0,92,0.00,,---,0.00,VWS V14.00,2013-06-04 05:48:00,
2013-06-04 00:49:00,53.4,51.2,29.09,NNE,31,0.0,0.0,92,0.00,,---,0.00,VWS V14.00,2013-06-04 05:49:00,
2013-06-04 00:50:00,53.6,50.7,29.09,NNE,31,0.0,0.0,90,0.00,,---,0.00,VWS V14.00,2013-06-04 05:50:00,
2013-06-04 00:51:00,53.6,50.7,29.09,NNE,31,0.0,0.0,90,0.00,,---,0.00,VWS V14.00,2013-06-04 05:51:00,
2013-06-04 00:52:00,53.6,50.7,29.09,NNE,31,0.0,0.0,90,0.00,,---,0.00,VWS V14.00,2013-06-04 05:52:00,
2013-06-04 00:53:00,53.6,50.7,29.09,NNE,31,0.0,0.0,90,0.00,,---,0.00,VWS V14.00,2013-06-04 05:53:00,
2013-06-04 00:54:00,53.6,50.7,29.09,NNE,31,0.0,0.0,90,0.00,,---,0.00,VWS V14.00,2013-06-04 05:54:00,
2013-06-04 00:55:00,53.6,50.7,29.09,NNE,30,0.0,0.0,90,0.00,,---,0.00,VWS V14.00,2013-06-04 05:55:00,
2013-06-04 00:56:00,53.6,50.7,29.09,NNE,31,0.0,0.0,90,0.00,,---,0.00,VWS V14.00,2013-06-04 05:56:00,
2013-06-04 00:57:00,53.6,50.7,29.09,NNE,30,0.0,0.0,90,0.00,,---,0.00,VWS V14.00,2013-06-04 05:57:00,
2013-06-04 00:58:00,53.6,50.7,29.09,NNE,31,0.0,0.0,90,0.00,,---,0.00,VWS V14.00,2013-06-04 05:58:00,
2013-06-04 00:59:00,53.6,50.7,29.09,NNE,31,0.0,0.0,90,0.00,,---,0.00,VWS V14.00,2013-06-04 05:59:00,
2013-06-04 01:00:00,53.6,50.7,29.09,NNE,31,0.0,0.0,90,0.00,,---,0.00,VWS V14.00,2013-06-04 06:00:00,
2013-06-04 01:01:00,53.6,50.7,29.09,NNE,31,0.0,0.0,90,0.00,,---,0.00,VWS V14.00,2013-06-04 06:01:00,
2013-06-04 01:02:00,53.6,50.7,29.09,NNE,31,0.0,0.0,90,0.00,,---,0.00,VWS V14.00,2013-06-04 06:02:00,
2013-06-04 01:03:00,53.6,50.7,29.09,NNE,31,0.0,0.0,90,0.00,,---,0.00,VWS V14.00,2013-06-04 06:03:00,
2013-06-04 01:04:00,53.6,50.7,29.09,NNE,31,0.0,0.0,90,0.00,,---,0.00,VWS V14.00,2013-06-04 06:04:00,
2013-06-04 01:05:00,53.6,50.7,29.09,NNE,31,0.0,0.0,90,0.00,,---,0.00,VWS V14.00,2013-06-04 06:05:00,
2013-06-04 01:06:00,53.6,50.7,29.09,NNE,30,0.0,0.0,90,0.00,,---,0.00,VWS V14.00,2013-06-04 06:06:00,
2013-06-04 01:07:00,53.6,50.7,29.09,NNE,30,0.0,0.0,90,0.00,,---,0.00,VWS V14.00,2013-06-04 06:07:00,
2013-06-04 01:08:00,53.6,50.7,29.09,NNE,31,0.0,0.0,90,0.00,,---,0.00,VWS V14.00,2013-06-04 06:08:00,
2013-06-04 01:09:00,53.4,50.6,29.09,NNE,30,0.0,0.0,90,0.00,,---,0.00,VWS V14.00,2013-06-04 06:09:00,
2013-06-04 01:10:00,53.4,50.6,29.09,NNE,30,0.0,0.0,90,0.00,,---,0.00,VWS V14.00,2013-06-04 06:10:00,
2013-06-04 01:11:00,53.4,50.6,29.09,NNE,31,0.0,0.0,90,0.00,,---,0.00,VWS V14.00,2013-06-04 06:11:00,
2013-06-04 01:12:00,53.2,50.4,29.09,NNE,30,0.0,0.0,90,0.00,,---,0.00,VWS V14.00,2013-06-04 06:12:00,
2013-06-04 01:13:00,53.2,50.4,29.09,NNE,30,0.0,0.0,90,0.00,,---,0.00,VWS V14.00,2013-06-04 06:13:00,
2013-06-04 01:14:00,53.2,50.4,29.09,NNE,30,0.0,0.0,90,0.00,,---,0.00,VWS V14.00,2013-06-04 06:14:00,
2013-06-04 01:15:00,53.1,49.6,29.09,NNE,31,0.0,0.0,88,0.00,,---,0.00,VWS V14.00,2013-06-04 06:15:00,
2013-06-04 01:16:00,53.1,49.6,29.09,NNE,31,0.0,0.0,88,0.00,,---,0.00,VWS V14.00,2013-06-04 06:16:00,
2013-06-04 01:17:00,52.9,49.4,29.09,NNE,31,0.0,0.0,88,0.00,,---,0.00,VWS V14.00,2013-06-04 06:17:00,
2013-06-04 01:18:00,52.9,49.4,29.09,NNE,31,0.0,0.0,88,0.00,,---,0.00,VWS V14.00,2013-06-04 06:18:00,
2013-06-04 01:19:00,52.9,49.4,29.09,NNE,31,0.0,0.0,88,0.00,,---,0.00,VWS V14.00,2013-06-04 06:19:00,
2013-06-04 01:20:00,52.9,49.4,29.09,NNE,30,0.0,0.0,88,0.00,,---,0.00,VWS V14.00,2013-06-04 06:20:00,
2013-06-04 01:21:00,52.9,49.4,29.09,NNE,30,0.0,0.0,88,0.00,,---,0.00,VWS V14.00,2013-06-04 06:21:00,
2013-06-04 01:22:00,52.7,49.2,29.09,NNE,31,0.0,0.0,88,0.00,,---,0.00,VWS V14.00,2013-06-04 06:22:00,
2013-06-04 01:23:00,52.7,49.2,29.09,NNE,31,0.0,0.0,88,0.00,,---,0.00,VWS V14.00,2013-06-04 06:23:00,
2013-06-04 01:24:00,52.7,49.2,29.09,NNE,30,0.0,0.0,88,0.00,,---,0.00,VWS V14.00,2013-06-04 06:24:00,
2013-06-04 01:25:00,52.5,49.1,29.09,NNE,30,0.0,0.0,88,0.00,,---,0.00,VWS V14.00,2013-06-04 06:25:00,
2013-06-04 01:26:00,52.5,49.1,29.09,NNE,31,0.0,0.0,88,0.00,,---,0.00,VWS V14.00,2013-06-04 06:26:00,
2013-06-04 01:27:00,52.3,48.9,29.09,NNE,30,0.0,0.0,88,0.00,,---,0.00,VWS V14.00,2013-06-04 06:27:00,
2013-06-04 01:28:00,52.3,48.9,29.09,NNE,31,0.0,0.0,88,0.00,,---,0.00,VWS V14.00,2013-06-04 06:28:00,
2013-06-04 01:29:00,52.3,48.9,29.09,NNE,31,0.0,0.0,88,0.00,,---,0.00,VWS V14.00,2013-06-04 06:29:00,
2013-06-04 01:30:00,52.3,48.9,29.09,NNE,31,0.0,0.0,88,0.00,,---,0.00,VWS V14.00,2013-06-04 06:30:00,
2013-06-04 01:31:00,52.2,48.7,29.09,NNE,31,0.0,0.0,88,0.00,,---,0.00,VWS V14.00,2013-06-04 06:31:00,
2013-06-04 01:32:00,52.2,48.7,29.09,NNE,31,0.0,0.0,88,0.00,,---,0.00,VWS V14.00,2013-06-04 06:32:00,
2013-06-04 01:33:00,52.2,48.7,29.09,NNE,31,0.0,0.0,88,0.00,,---,0.00,VWS V14.00,2013-06-04 06:33:00,
2013-06-04 01:34:00,52.2,48.7,29.09,NNE,31,0.0,0.0,88,0.00,,---,0.00,VWS V14.00,2013-06-04 06:34:00,
2013-06-04 01:35:00,52.0,48.5,29.09,NNE,31,0.0,0.0,88,0.00,,---,0.00,VWS V14.00,2013-06-04 06:35:00,
2013-06-04 01:36:00,52.0,48.5,29.09,NNE,31,0.0,0.0,88,0.00,,---,0.00,VWS V14.00,2013-06-04 06:36:00,
2013-06-04 01:37:00,52.0,48.5,29.09,NNE,30,0.0,0.0,88,0.00,,---,0.00,VWS V14.00,2013-06-04 06:37:00,
2013-06-04 01:38:00,52.0,48.5,29.09,NNE,31,0.0,0.0,88,0.00,,---,0.00,VWS V14.00,2013-06-04 06:38:00,
2013-06-04 01:39:00,52.0,48.5,29.09,NNE,31,0.0,0.0,88,0.00,,---,0.00,VWS V14.00,2013-06-04 06:39:00,
2013-06-04 01:40:00,51.8,48.4,29.09,NNE,30,0.0,0.0,88,0.00,,---,0.00,VWS V14.00,2013-06-04 06:40:00,
2013-06-04 01:41:00,51.8,48.4,29.09,NNE,31,0.0,0.0,88,0.00,,---,0.00,VWS V14.00,2013-06-04 06:41:00,
2013-06-04 01:42:00,51.6,48.8,29.09,NNE,30,0.0,0.0,90,0.00,,---,0.00,VWS V14.00,2013-06-04 06:42:00,
2013-06-04 01:43:00,51.6,48.8,29.09,NNE,31,0.0,0.0,90,0.00,,---,0.00,VWS V14.00,2013-06-04 06:43:00,
2013-06-04 01:44:00,51.6,48.8,29.09,NNE,31,0.0,0.0,90,0.00,,---,0.00,VWS V14.00,2013-06-04 06:44:00,
2013-06-04 01:45:00,51.6,48.8,29.09,NNE,30,0.0,0.0,90,0.00,,---,0.00,VWS V14.00,2013-06-04 06:45:00,
2013-06-04 01:46:00,51.6,48.8,29.09,NNE,30,0.0,0.0,90,0.00,,---,0.00,VWS V14.00,2013-06-04 06:46:00,
2013-06-04 01:47:00,51.4,48.6,29.09,NNE,30,0.0,0.0,90,0.00,,---,0.00,VWS V14.00,2013-06-04 06:47:00,
2013-06-04 01:48:00,51.4,48.6,29.09,NNE,31,0.0,0.0,90,0.00,,---,0.00,VWS V14.00,2013-06-04 06:48:00,
2013-06-04 01:49:00,51.4,48.6,29.09,NNE,31,0.0,0.0,90,0.00,,---,0.00,VWS V14.00,2013-06-04 06:49:00,
2013-06-04 01:50:00,51.4,48.6,29.09,NNE,31,0.0,0.0,90,0.00,,---,0.00,VWS V14.00,2013-06-04 06:50:00,
2013-06-04 01:51:00,51.4,48.6,29.09,NNE,31,0.0,0.0,90,0.00,,---,0.00,VWS V14.00,2013-06-04 06:51:00,
2013-06-04 01:52:00,51.3,48.4,29.09,NNE,30,0.0,0.0,90,0.00,,---,0.00,VWS V14.00,2013-06-04 06:52:00,
2013-06-04 01:53:00,51.3,48.4,29.09,NNE,31,0.0,0.0,90,0.00,,---,0.00,VWS V14.00,2013-06-04 06:53:00,
2013-06-04 01:54:00,51.3,48.4,29.09,NNE,31,0.0,0.0,90,0.00,,---,0.00,VWS V14.00,2013-06-04 06:54:00,
2013-06-04 01:55:00,51.3,48.4,29.09,NNE,31,0.0,0.0,90,0.00,,---,0.00,VWS V14.00,2013-06-04 06:55:00,
2013-06-04 01:56:00,51.3,49.0,29.09,NNE,31,0.0,0.0,92,0.00,,---,0.00,VWS V14.00,2013-06-04 06:56:00,
2013-06-04 01:57:00,51.4,49.2,29.09,NNE,31,0.0,0.0,92,0.00,,---,0.00,VWS V14.00,2013-06-04 06:57:00,
2013-06-04 01:58:00,51.4,49.2,29.09,NNE,31,0.0,0.0,92,0.00,,---,0.00,VWS V14.00,2013-06-04 06:58:00,
2013-06-04 01:59:00,51.4,49.8,29.09,NNE,31,0.0,0.0,94,0.00,,---,0.00,VWS V14.00,2013-06-04 06:59:00,
2013-06-04 02:00:00,51.4,49.8,29.09,NNE,31,0.0,0.0,94,0.00,,---,0.00,VWS V14.00,2013-06-04 07:00:00,
2013-06-04 02:01:00,51.4,49.8,29.09,NNE,31,0.0,0.0,94,0.00,,---,0.00,VWS V14.00,2013-06-04 07:01:00,
2013-06-04 02:02:00,51.4,49.2,29.09,NNE,31,0.0,0.0,92,0.00,,---,0.00,VWS V14.00,2013-06-04 07:02:00,
2013-06-04 02:03:00,51.4,49.2,29.09,NNE,31,0.0,0.0,92,0.00,,---,0.00,VWS V14.00,2013-06-04 07:03:00,
2013-06-04 02:04:00,51.4,49.2,29.09,NNE,31,0.0,0.0,92,0.00,,---,0.00,VWS V14.00,2013-06-04 07:04:00,
2013-06-04 02:05:00,51.4,49.2,29.09,NNE,31,0.0,0.0,92,0.00,,---,0.00,VWS V14.00,2013-06-04 07:05:00,
2013-06-04 02:06:00,51.3,49.0,29.09,NNE,30,0.0,0.0,92,0.00,,---,0.00,VWS V14.00,2013-06-04 07:06:00,
2013-06-04 02:07:00,51.1,48.8,29.09,NNE,31,0.0,0.0,92,0.00,,---,0.00,VWS V14.00,2013-06-04 07:07:00,
2013-06-04 02:08:00,51.3,49.0,29.09,NNE,31,0.0,0.0,92,0.00,,---,0.00,VWS V14.00,2013-06-04 07:08:00,
2013-06-04 02:09:00,51.1,48.8,29.09,NNE,31,0.0,0.0,92,0.00,,---,0.00,VWS V14.00,2013-06-04 07:09:00,
2013-06-04 02:10:00,51.1,48.8,29.09,NNE,31,0.0,0.0,92,0.00,,---,0.00,VWS V14.00,2013-06-04 07:10:00,
2013-06-04 02:11:00,51.1,48.8,29.09,NNE,31,0.0,0.0,92,0.00,,---,0.00,VWS V14.00,2013-06-04 07:11:00,
2013-06-04 02:12:00,51.1,48.8,29.09,NNE,30,0.0,0.0,92,0.00,,---,0.00,VWS V14.00,2013-06-04 07:12:00,
2013-06-04 02:13:00,51.1,48.8,29.09,NNE,31,0.0,0.0,92,0.00,,---,0.00,VWS V14.00,2013-06-04 07:13:00,
2013-06-04 02:14:00,51.1,48.8,29.09,NNE,30,0.0,0.0,92,0.00,,---,0.00,VWS V14.00,2013-06-04 07:14:00,
2013-06-04 02:15:00,51.1,48.8,29.09,NNE,31,0.0,0.0,92,0.00,,---,0.00,VWS V14.00,2013-06-04 07:15:00,
2013-06-04 02:16:00,51.1,48.8,29.09,NNE,31,0.0,0.0,92,0.00,,---,0.00,VWS V14.00,2013-06-04 07:16:00,
2013-06-04 02:17:00,50.9,48.7,29.09,NNE,31,0.0,0.0,92,0.00,,---,0.00,VWS V14.00,2013-06-04 07:17:00,
2013-06-04 02:18:00,50.9,48.7,29.09,NNE,30,0.0,0.0,92,0.00,,---,0.00,VWS V14.00,2013-06-04 07:18:00,
2013-06-04 02:19:00,50.9,48.7,29.09,NNE,30,0.0,0.0,92,0.00,,---,0.00,VWS V14.00,2013-06-04 07:19:00,
2013-06-04 02:20:00,50.9,48.7,29.09,NNE,31,0.0,0.0,92,0.00,,---,0.00,VWS V14.00,2013-06-04 07:20:00,
2013-06-04 02:21:00,50.7,48.5,29.09,NNE,30,0.0,0.0,92,0.00,,---,0.00,VWS V14.00,2013-06-04 07:21:00,
2013-06-04 02:22:00,50.7,48.5,29.09,NNE,31,0.0,0.0,92,0.00,,---,0.00,VWS V14.00,2013-06-04 07:22:00,
2013-06-04 02:23:00,50.7,48.5,29.09,NNE,30,0.0,0.0,92,0.00,,---,0.00,VWS V14.00,2013-06-04 07:23:00,
2013-06-04 02:24:00,50.7,48.5,29.09,NNE,31,0.0,0.0,92,0.00,,---,0.00,VWS V14.00,2013-06-04 07:24:00,
2013-06-04 02:25:00,50.7,48.5,29.09,NNE,31,0.0,0.0,92,0.00,,---,0.00,VWS V14.00,2013-06-04 07:25:00,
2013-06-04 02:26:00,50.7,48.5,29.09,NNE,31,0.0,0.0,92,0.00,,---,0.00,VWS V14.00,2013-06-04 07:26:00,
2013-06-04 02:27:00,50.7,49.1,29.09,NNE,31,0.0,0.0,94,0.00,,---,0.00,VWS V14.00,2013-06-04 07:27:00,
2013-06-04 02:28:00,50.7,49.1,29.09,NNE,30,0.0,0.0,94,0.00,,---,0.00,VWS V14.00,2013-06-04 07:28:00,
2013-06-04 02:29:00,50.7,49.1,29.09,NNE,31,0.0,0.0,94,0.00,,---,0.00,VWS V14.00,2013-06-04 07:29:00,
2013-06-04 02:30:00,50.7,49.1,29.09,NNE,31,0.0,0.0,94,0.00,,---,0.00,VWS V14.00,2013-06-04 07:30:00,
2013-06-04 02:31:00,50.7,49.1,29.09,NNE,31,0.0,0.0,94,0.00,,---,0.00,VWS V14.00,2013-06-04 07:31:00,
2013-06-04 02:32:00,50.7,49.1,29.09,NNE,30,0.0,0.0,94,0.00,,---,0.00,VWS V14.00,2013-06-04 07:32:00,
2013-06-04 02:33:00,50.7,49.1,29.09,NNE,30,0.0,0.0,94,0.00,,---,0.00,VWS V14.00,2013-06-04 07:33:00,
2013-06-04 02:34:00,50.7,49.1,29.09,NNE,30,0.0,0.0,94,0.00,,---,0.00,VWS V14.00,2013-06-04 07:34:00,
2013-06-04 02:35:00,50.7,49.1,29.09,NNE,31,0.0,0.0,94,0.00,,---,0.00,VWS V14.00,2013-06-04 07:35:00,
2013-06-04 02:36:00,50.7,49.1,29.09,NNE,31,0.0,0.0,94,0.00,,---,0.00,VWS V14.00,2013-06-04 07:36:00,
2013-06-04 02:37:00,50.5,48.9,29.09,NNE,31,0.0,0.0,94,0.00,,---,0.00,VWS V14.00,2013-06-04 07:37:00,
2013-06-04 02:38:00,50.5,48.9,29.09,NNE,31,0.0,0.0,94,0.00,,---,0.00,VWS V14.00,2013-06-04 07:38:00,
2013-06-04 02:39:00,50.5,48.9,29.09,NNE,31,0.0,0.0,94,0.00,,---,0.00,VWS V14.00,2013-06-04 07:39:00,
2013-06-04 02:40:00,50.5,48.9,29.09,NNE,30,0.0,0.0,94,0.00,,---,0.00,VWS V14.00,2013-06-04 07:40:00,
2013-06-04 02:41:00,50.4,48.7,29.09,NNE,30,0.0,0.0,94,0.00,,---,0.00,VWS V14.00,2013-06-04 07:41:00,
2013-06-04 02:42:00,50.4,48.7,29.09,NNE,31,0.0,0.0,94,0.00,,---,0.00,VWS V14.00,2013-06-04 07:42:00,
2013-06-04 02:43:00,50.4,48.7,29.09,NNE,31,0.0,0.0,94,0.00,,---,0.00,VWS V14.00,2013-06-04 07:43:00,
2013-06-04 02:44:00,50.4,48.7,29.09,NNE,31,0.0,0.0,94,0.00,,---,0.00,VWS V14.00,2013-06-04 07:44:00,
2013-06-04 02:45:00,50.5,48.9,29.09,NNE,31,0.0,0.0,94,0.00,,---,0.00,VWS V14.00,2013-06-04 07:45:00,
2013-06-04 02:46:00,50.5,48.9,29.09,NNE,30,0.0,0.0,94,0.00,,---,0.00,VWS V14.00,2013-06-04 07:46:00,
2013-06-04 02:47:00,50.5,48.9,29.09,NNE,31,0.0,0.0,94,0.00,,---,0.00,VWS V14.00,2013-06-04 07:47:00,
2013-06-04 02:48:00,50.5,48.9,29.09,NNE,31,0.0,0.0,94,0.00,,---,0.00,VWS V14.00,2013-06-04 07:48:00,
2013-06-04 02:49:00,50.5,48.9,29.09,NNE,31,0.0,0.0,94,0.00,,---,0.00,VWS V14.00,2013-06-04 07:49:00,
2013-06-04 02:50:00,50.5,48.9,29.09,NNE,30,0.0,0.0,94,0.00,,---,0.00,VWS V14.00,2013-06-04 07:50:00,
2013-06-04 02:51:00,50.4,48.7,29.09,NNE,31,0.0,0.0,94,0.00,,---,0.00,VWS V14.00,2013-06-04 07:51:00,
2013-06-04 02:52:00,50.4,48.7,29.09,NNE,31,0.0,0.0,94,0.00,,---,0.00,VWS V14.00,2013-06-04 07:52:00,
2013-06-04 02:53:00,50.4,48.7,29.09,NNE,31,0.0,0.0,94,0.00,,---,0.00,VWS V14.00,2013-06-04 07:53:00,
2013-06-04 02:54:00,50.4,48.7,29.09,NNE,30,0.0,0.0,94,0.00,,---,0.00,VWS V14.00,2013-06-04 07:54:00,
2013-06-04 02:55:00,50.2,48.5,29.09,NNE,31,0.0,0.0,94,0.00,,---,0.00,VWS V14.00,2013-06-04 07:55:00,
2013-06-04 02:56:00,50.2,49.1,29.09,NNE,31,0.0,0.0,96,0.00,,---,0.00,VWS V14.00,2013-06-04 07:56:00,
2013-06-04 02:57:00,50.2,49.1,29.09,NNE,30,0.0,0.0,96,0.00,,---,0.00,VWS V14.00,2013-06-04 07:57:00,
2013-06-04 02:58:00,50.2,49.1,29.09,NNE,30,0.0,0.0,96,0.00,,---,0.00,VWS V14.00,2013-06-04 07:58:00,
2013-06-04 02:59:00,50.2,49.1,29.09,NNE,31,0.0,0.0,96,0.00,,---,0.00,VWS V14.00,2013-06-04 07:59:00,
2013-06-04 03:00:00,50.2,49.1,29.09,NNE,31,0.0,0.0,96,0.00,,---,0.00,VWS V14.00,2013-06-04 08:00:00,
2013-06-04 03:01:00,50.2,49.6,29.09,NNE,31,0.0,0.0,98,0.00,,---,0.00,VWS V14.00,2013-06-04 08:01:00,
2013-06-04 03:02:00,50.4,50.4,29.09,NNE,31,0.0,0.0,100,0.00,,---,0.00,VWS V14.00,2013-06-04 08:02:00,
2013-06-04 03:03:00,50.2,50.2,29.09,NNE,30,0.0,0.0,100,0.00,,---,0.00,VWS V14.00,2013-06-04 08:03:00,
2013-06-04 03:04:00,50.4,50.4,29.09,NNE,30,0.0,0.0,100,0.00,,---,0.00,VWS V14.00,2013-06-04 08:04:00,
2013-06-04 03:05:00,50.4,50.4,29.09,NNE,31,0.0,0.0,100,0.00,,---,0.00,VWS V14.00,2013-06-04 08:05:00,
2013-06-04 03:06:00,50.4,50.4,29.09,NNE,31,0.0,0.0,100,0.00,,---,0.00,VWS V14.00,2013-06-04 08:06:00,
2013-06-04 03:07:00,50.2,50.2,29.09,NNE,30,0.0,0.0,100,0.00,,---,0.00,VWS V14.00,2013-06-04 08:07:00,
2013-06-04 03:08:00,50.2,50.2,29.09,NNE,31,0.0,0.0,100,0.00,,---,0.00,VWS V14.00,2013-06-04 08:08:00,
2013-06-04 03:09:00,50.2,50.2,29.09,NNE,31,0.0,0.0,100,0.00,,---,0.00,VWS V14.00,2013-06-04 08:09:00,
2013-06-04 03:10:00,50.2,50.2,29.09,NNE,30,0.0,0.0,100,0.00,,---,0.00,VWS V14.00,2013-06-04 08:10:00,
2013-06-04 03:11:00,50.2,50.2,29.09,NNE,31,0.0,0.0,100,0.00,,---,0.00,VWS V14.00,2013-06-04 08:11:00,
2013-06-04 03:12:00,50.2,50.2,29.09,NNE,31,0.0,0.0,100,0.00,,---,0.00,VWS V14.00,2013-06-04 08:12:00,
2013-06-04 03:13:00,50.2,50.2,29.09,NNE,31,0.0,0.0,100,0.00,,---,0.00,VWS V14.00,2013-06-04 08:13:00,
2013-06-04 03:14:00,50.2,50.2,29.09,NNE,31,0.0,0.0,100,0.00,,---,0.00,VWS V14.00,2013-06-04 08:14:00,
2013-06-04 03:15:00,50.2,50.2,29.09,NNE,30,0.0,0.0,100,0.00,,---,0.00,VWS V14.00,2013-06-04 08:15:00,
2013-06-04 03:16:00,50.2,50.2,29.09,NNE,30,0.0,0.0,100,0.00,,---,0.00,VWS V14.00,2013-06-04 08:16:00,
2013-06-04 03:17:00,50.4,50.4,29.09,NNE,31,0.0,0.0,100,0.00,,---,0.00,VWS V14.00,2013-06-04 08:17:00,
2013-06-04 03:18:00,50.4,50.4,29.09,NNE,31,0.0,0.0,100,0.00,,---,0.00,VWS V14.00,2013-06-04 08:18:00,
2013-06-04 03:19:00,50.4,50.4,29.09,NNE,31,0.0,0.0,100,0.00,,---,0.00,VWS V14.00,2013-06-04 08:19:00,
2013-06-04 03:20:00,50.5,50.5,29.09,NNE,31,0.0,0.0,100,0.00,,---,0.00,VWS V14.00,2013-06-04 08:20:00,
2013-06-04 03:21:00,50.5,50.5,29.09,NNE,30,0.0,0.0,100,0.00,,---,0.00,VWS V14.00,2013-06-04 08:21:00,
2013-06-04 03:22:00,50.7,50.7,29.09,NNE,27,0.0,0.0,100,0.00,,---,0.00,VWS V14.00,2013-06-04 08:22:00,
2013-06-04 03:23:00,50.7,50.7,29.09,NNE,27,0.0,0.0,100,0.00,,---,0.00,VWS V14.00,2013-06-04 08:23:00,
2013-06-04 03:24:00,50.7,50.7,29.09,NNE,27,0.0,0.0,100,0.00,,---,0.00,VWS V14.00,2013-06-04 08:24:00,
2013-06-04 03:25:00,50.9,50.9,29.09,North,0,0.0,0.0,100,0.00,,---,0.00,VWS V14.00,2013-06-04 08:25:00,
2013-06-04 03:26:00,50.9,50.9,29.09,North,11,0.0,0.0,100,0.00,,---,0.00,VWS V14.00,2013-06-04 08:26:00,
2013-06-04 03:27:00,51.3,51.3,29.09,North,0,0.0,0.0,100,0.00,,---,0.00,VWS V14.00,2013-06-04 08:27:00,
2013-06-04 03:28:00,51.1,51.1,29.09,North,11,0.0,0.0,100,0.00,,---,0.00,VWS V14.00,2013-06-04 08:28:00,
2013-06-04 03:29:00,51.3,51.3,29.09,North,0,0.0,0.0,100,0.00,,---,0.00,VWS V14.00,2013-06-04 08:29:00,
2013-06-04 03:30:00,51.3,51.3,29.09,North,9,0.0,0.0,100,0.00,,---,0.00,VWS V14.00,2013-06-04 08:30:00,
2013-06-04 03:31:00,51.4,51.4,29.09,NE,42,0.0,0.0,100,0.00,,---,0.00,VWS V14.00,2013-06-04 08:31:00,
2013-06-04 03:32:00,51.4,51.4,29.09,North,11,0.0,0.0,100,0.00,,---,0.00,VWS V14.00,2013-06-04 08:32:00,
2013-06-04 03:33:00,51.4,51.4,29.09,North,11,0.0,0.0,100,0.00,,---,0.00,VWS V14.00,2013-06-04 08:33:00,
2013-06-04 03:34:00,51.4,51.4,29.09,North,11,0.0,0.0,100,0.00,,---,0.00,VWS V14.00,2013-06-04 08:34:00,
2013-06-04 03:35:00,51.4,51.4,29.09,North,11,0.0,0.0,100,0.00,,---,0.00,VWS V14.00,2013-06-04 08:35:00,
2013-06-04 03:36:00,51.4,51.4,29.09,North,11,0.0,0.0,100,0.00,,---,0.00,VWS V14.00,2013-06-04 08:36:00,
2013-06-04 03:37:00,51.6,51.6,29.09,NNE,24,0.0,0.0,100,0.00,,---,0.00,VWS V14.00,2013-06-04 08:37:00,
2013-06-04 03:38:00,51.6,51.6,29.09,NNE,24,0.0,0.0,100,0.00,,---,0.00,VWS V14.00,2013-06-04 08:38:00,
2013-06-04 03:39:00,51.6,51.6,29.09,NNE,24,0.0,0.0,100,0.00,,---,0.00,VWS V14.00,2013-06-04 08:39:00,
2013-06-04 03:40:00,51.4,51.4,29.09,NNE,24,0.0,0.0,100,0.00,,---,0.00,VWS V14.00,2013-06-04 08:40:00,
2013-06-04 03:41:00,51.4,51.4,29.09,NNE,24,0.0,0.0,100,0.00,,---,0.00,VWS V14.00,2013-06-04 08:41:00,
2013-06-04 03:42:00,51.4,51.4,29.09,NNE,24,0.0,0.0,100,0.00,,---,0.00,VWS V14.00,2013-06-04 08:42:00,
2013-06-04 03:43:00,51.4,51.4,29.09,NNE,24,0.0,0.0,100,0.00,,---,0.00,VWS V14.00,2013-06-04 08:43:00,
2013-06-04 03:44:00,51.4,51.4,29.09,NNE,24,0.0,0.0,100,0.00,,---,0.00,VWS V14.00,2013-06-04 08:44:00,
2013-06-04 03:45:00,51.3,51.3,29.09,NNE,24,0.0,0.0,100,0.00,,---,0.00,VWS V14.00,2013-06-04 08:45:00,
2013-06-04 03:46:00,51.3,51.3,29.09,NNE,24,0.0,0.0,100,0.00,,---,0.00,VWS V14.00,2013-06-04 08:46:00,
2013-06-04 03:47:00,51.3,51.3,29.09,NNE,24,0.0,0.0,100,0.00,,---,0.00,VWS V14.00,2013-06-04 08:47:00,
2013-06-04 03:48:00,51.3,51.3,29.09,NNE,24,0.0,0.0,100,0.00,,---,0.00,VWS V14.00,2013-06-04 08:48:00,
2013-06-04 03:49:00,51.3,51.3,29.09,NNE,24,0.0,0.0,100,0.00,,---,0.00,VWS V14.00,2013-06-04 08:49:00,
2013-06-04 03:50:00,51.3,51.3,29.09,NNE,24,0.0,0.0,100,0.00,,---,0.00,VWS V14.00,2013-06-04 08:50:00,
2013-06-04 03:51:00,51.3,51.3,29.09,NNE,24,0.0,0.0,100,0.00,,---,0.00,VWS V14.00,2013-06-04 08:51:00,
2013-06-04 03:52:00,51.3,51.3,29.09,NNE,24,0.0,0.0,100,0.00,,---,0.00,VWS V14.00,2013-06-04 08:52:00,
2013-06-04 03:53:00,51.3,51.3,29.09,NNE,24,0.0,0.0,100,0.00,,---,0.00,VWS V14.00,2013-06-04 08:53:00,
2013-06-04 03:54:00,51.3,51.3,29.09,NNE,24,0.0,0.0,100,0.00,,---,0.00,VWS V14.00,2013-06-04 08:54:00,
2013-06-04 03:55:00,51.1,51.1,29.09,NNE,24,0.0,0.0,100,0.00,,---,0.00,VWS V14.00,2013-06-04 08:55:00,
2013-06-04 03:56:00,51.1,51.1,29.09,NNE,24,0.0,0.0,100,0.00,,---,0.00,VWS V14.00,2013-06-04 08:56:00,
2013-06-04 03:57:00,50.9,50.9,29.09,NNE,24,0.0,0.0,100,0.00,,---,0.00,VWS V14.00,2013-06-04 08:57:00,
2013-06-04 03:58:00,50.9,50.9,29.09,NNE,24,0.0,0.0,100,0.00,,---,0.00,VWS V14.00,2013-06-04 08:58:00,
2013-06-04 03:59:00,50.9,50.9,29.09,NNE,24,0.0,0.0,100,0.00,,---,0.00,VWS V14.00,2013-06-04 08:59:00,
2013-06-04 04:00:00,50.9,50.9,29.09,NNE,24,0.0,0.0,100,0.00,,---,0.00,VWS V14.00,2013-06-04 09:00:00,
2013-06-04 04:01:00,50.9,50.9,29.09,NNE,24,0.0,0.0,100,0.00,,---,0.00,VWS V14.00,2013-06-04 09:01:00,
2013-06-04 04:02:00,50.7,50.7,29.09,NNE,24,0.0,0.0,100,0.00,,---,0.00,VWS V14.00,2013-06-04 09:02:00,
2013-06-04 04:03:00,50.7,50.7,29.09,NNE,24,0.0,0.0,100,0.00,,---,0.00,VWS V14.00,2013-06-04 09:03:00,
2013-06-04 04:04:00,50.7,50.7,29.09,NNE,24,0.0,0.0,100,0.00,,---,0.00,VWS V14.00,2013-06-04 09:04:00,
2013-06-04 04:05:00,50.5,50.5,29.09,NNE,24,0.0,0.0,100,0.00,,---,0.00,VWS V14.00,2013-06-04 09:05:00,
2013-06-04 04:06:00,50.5,50.5,29.09,NNE,24,0.0,0.0,100,0.00,,---,0.00,VWS V14.00,2013-06-04 09:06:00,
2013-06-04 04:07:00,50.4,50.4,29.09,NNE,24,0.0,0.0,100,0.00,,---,0.00,VWS V14.00,2013-06-04 09:07:00,
2013-06-04 04:08:00,50.4,50.4,29.09,NNE,24,0.0,0.0,100,0.00,,---,0.00,VWS V14.00,2013-06-04 09:08:00,
2013-06-04 04:09:00,50.4,50.4,29.09,NNE,24,0.0,0.0,100,0.00,,---,0.00,VWS V14.00,2013-06-04 09:09:00,
2013-06-04 04:10:00,50.5,50.5,29.09,NNE,24,0.0,0.0,100,0.00,,---,0.00,VWS V14.00,2013-06-04 09:10:00,
2013-06-04 04:11:00,50.5,50.5,29.09,NNE,24,0.0,0.0,100,0.00,,---,0.00,VWS V14.00,2013-06-04 09:11:00,
2013-06-04 04:12:00,50.4,50.4,29.09,NNE,24,0.0,0.0,100,0.00,,---,0.00,VWS V14.00,2013-06-04 09:12:00,
2013-06-04 04:13:00,50.4,50.4,29.09,NNE,24,0.0,0.0,100,0.00,,---,0.00,VWS V14.00,2013-06-04 09:13:00,
2013-06-04 04:14:00,50.4,50.4,29.09,NNE,24,0.0,0.0,100,0.00,,---,0.00,VWS V14.00,2013-06-04 09:14:00,
2013-06-04 04:15:00,50.2,50.2,29.09,NNE,24,0.0,0.0,100,0.00,,---,0.00,VWS V14.00,2013-06-04 09:15:00,
2013-06-04 04:16:00,50.2,50.2,29.09,NNE,24,0.0,0.0,100,0.00,,---,0.00,VWS V14.00,2013-06-04 09:16:00,
2013-06-04 04:17:00,50.0,50.0,29.09,NNE,24,0.0,0.0,100,0.00,,---,0.00,VWS V14.00,2013-06-04 09:17:00,
2013-06-04 04:18:00,50.2,50.2,29.09,NNE,24,0.0,0.0,100,0.00,,---,0.00,VWS V14.00,2013-06-04 09:18:00,
2013-06-04 04:19:00,50.0,50.0,29.09,NNE,24,0.0,0.0,100,0.00,,---,0.00,VWS V14.00,2013-06-04 09:19:00,
2013-06-04 04:20:00,50.0,50.0,29.09,NNE,24,0.0,0.0,100,0.00,,---,0.00,VWS V14.00,2013-06-04 09:20:00,
2013-06-04 04:21:00,50.0,50.0,29.09,NNE,24,0.0,0.0,100,0.00,,---,0.00,VWS V14.00,2013-06-04 09:21:00,
2013-06-04 04:22:00,49.8,49.8,29.09,NNE,24,0.0,0.0,100,0.00,,---,0.00,VWS V14.00,2013-06-04 09:22:00,
2013-06-04 04:23:00,50.0,50.0,29.09,NNE,24,0.0,0.0,100,0.00,,---,0.00,VWS V14.00,2013-06-04 09:23:00,
2013-06-04 04:24:00,49.8,49.8,29.09,NNE,24,0.0,0.0,100,0.00,,---,0.00,VWS V14.00,2013-06-04 09:24:00,
2013-06-04 04:25:00,49.8,49.8,29.09,NNE,24,0.0,0.0,100,0.00,,---,0.00,VWS V14.00,2013-06-04 09:25:00,
2013-06-04 04:26:00,49.8,49.8,29.09,NNE,24,0.0,0.0,100,0.00,,---,0.00,VWS V14.00,2013-06-04 09:26:00,
2013-06-04 04:27:00,49.8,49.8,29.09,NNE,24,0.0,0.0,100,0.00,,---,0.00,VWS V14.00,2013-06-04 09:27:00,
2013-06-04 04:28:00,49.8,49.8,29.09,NNE,24,0.0,0.0,100,0.00,,---,0.00,VWS V14.00,2013-06-04 09:28:00,
2013-06-04 04:29:00,49.8,49.8,29.09,NNE,24,0.0,0.0,100,0.00,,---,0.00,VWS V14.00,2013-06-04 09:29:00,
2013-06-04 04:30:00,49.8,49.8,29.09,NNE,24,0.0,0.0,100,0.00,,---,0.00,VWS V14.00,2013-06-04 09:30:00,
2013-06-04 04:31:00,49.8,49.8,29.09,NNE,24,0.0,0.0,100,0.00,,---,0.00,VWS V14.00,2013-06-04 09:31:00,
2013-06-04 04:32:00,49.6,49.6,29.09,NNE,24,0.0,0.0,100,0.00,,---,0.00,VWS V14.00,2013-06-04 09:32:00,
2013-06-04 04:33:00,49.8,49.8,29.09,NNE,24,0.0,0.0,100,0.00,,---,0.00,VWS V14.00,2013-06-04 09:33:00,
2013-06-04 04:34:00,49.6,49.6,29.09,NNE,24,0.0,0.0,100,0.00,,---,0.00,VWS V14.00,2013-06-04 09:34:00,
2013-06-04 04:35:00,49.6,49.6,29.09,NNE,24,0.0,0.0,100,0.00,,---,0.00,VWS V14.00,2013-06-04 09:35:00,
2013-06-04 04:36:00,49.6,49.6,29.09,NNE,24,0.0,0.0,100,0.00,,---,0.00,VWS V14.00,2013-06-04 09:36:00,
2013-06-04 04:37:00,49.6,49.6,29.09,NNE,24,0.0,0.0,100,0.00,,---,0.00,VWS V14.00,2013-06-04 09:37:00,
2013-06-04 04:38:00,49.6,49.6,29.09,NNE,24,0.0,0.0,100,0.00,,---,0.00,VWS V14.00,2013-06-04 09:38:00,
2013-06-04 04:39:00,49.6,49.6,29.09,NNE,24,0.0,0.0,100,0.00,,---,0.00,VWS V14.00,2013-06-04 09:39:00,
2013-06-04 04:40:00,49.6,49.6,29.09,NNE,24,0.0,0.0,100,0.00,,---,0.00,VWS V14.00,2013-06-04 09:40:00,
2013-06-04 04:41:00,49.6,49.6,29.09,NNE,24,0.0,0.0,100,0.00,,---,0.00,VWS V14.00,2013-06-04 09:41:00,
2013-06-04 04:42:00,49.6,49.6,29.09,NNE,24,0.0,0.0,100,0.00,,---,0.00,VWS V14.00,2013-06-04 09:42:00,
2013-06-04 04:43:00,49.6,49.6,29.09,NNE,24,0.0,0.0,100,0.00,,---,0.00,VWS V14.00,2013-06-04 09:43:00,
2013-06-04 04:44:00,49.6,49.6,29.09,NNE,24,0.0,0.0,100,0.00,,---,0.00,VWS V14.00,2013-06-04 09:44:00,
2013-06-04 04:45:00,49.6,49.6,29.09,NNE,24,0.0,0.0,100,0.00,,---,0.00,VWS V14.00,2013-06-04 09:45:00,
2013-06-04 04:46:00,49.6,49.6,29.09,NNE,24,0.0,0.0,100,0.00,,---,0.00,VWS V14.00,2013-06-04 09:46:00,
2013-06-04 04:47:00,49.6,49.6,29.09,NNE,24,0.0,0.0,100,0.00,,---,0.00,VWS V14.00,2013-06-04 09:47:00,
2013-06-04 04:48:00,49.6,49.6,29.09,NNE,24,0.0,0.0,100,0.00,,---,0.00,VWS V14.00,2013-06-04 09:48:00,
2013-06-04 04:49:00,49.6,49.6,29.09,NNE,24,0.0,0.0,100,0.00,,---,0.00,VWS V14.00,2013-06-04 09:49:00,
2013-06-04 04:50:00,49.6,49.6,29.09,NNE,24,0.0,0.0,100,0.00,,---,0.00,VWS V14.00,2013-06-04 09:50:00,
2013-06-04 04:51:00,49.6,49.6,29.09,NNE,24,0.0,0.0,100,0.00,,---,0.00,VWS V14.00,2013-06-04 09:51:00,
2013-06-04 04:52:00,49.8,49.8,29.12,NNE,24,0.0,0.0,100,0.00,,---,0.00,VWS V14.00,2013-06-04 09:52:00,
2013-06-04 04:53:00,49.6,49.6,29.12,NNE,24,0.0,0.0,100,0.00,,---,0.00,VWS V14.00,2013-06-04 09:53:00,
2013-06-04 04:54:00,49.6,49.6,29.12,NNE,24,0.0,0.0,100,0.00,,---,0.00,VWS V14.00,2013-06-04 09:54:00,
2013-06-04 04:55:00,49.8,49.8,29.12,NNE,24,0.0,0.0,100,0.00,,---,0.00,VWS V14.00,2013-06-04 09:55:00,
2013-06-04 04:56:00,49.8,49.8,29.12,NNE,24,0.0,0.0,100,0.00,,---,0.00,VWS V14.00,2013-06-04 09:56:00,
2013-06-04 04:57:00,49.8,49.8,29.12,NNE,24,0.0,0.0,100,0.00,,---,0.00,VWS V14.00,2013-06-04 09:57:00,
2013-06-04 04:58:00,49.8,49.8,29.12,NNE,24,0.0,0.0,100,0.00,,---,0.00,VWS V14.00,2013-06-04 09:58:00,
2013-06-04 04:59:00,49.8,49.8,29.12,NNE,24,0.0,0.0,100,0.00,,---,0.00,VWS V14.00,2013-06-04 09:59:00,
2013-06-04 05:00:00,49.8,49.8,29.12,NNE,24,0.0,0.0,100,0.00,,---,0.00,VWS V14.00,2013-06-04 10:00:00,
2013-06-04 05:01:00,49.8,49.8,29.12,NNE,24,0.0,0.0,100,0.00,,---,0.00,VWS V14.00,2013-06-04 10:01:00,
2013-06-04 05:02:00,49.8,49.8,29.12,NNE,24,0.0,0.0,100,0.00,,---,0.00,VWS V14.00,2013-06-04 10:02:00,
2013-06-04 05:03:00,49.8,49.8,29.12,NNE,24,0.0,0.0,100,0.00,,---,0.00,VWS V14.00,2013-06-04 10:03:00,
2013-06-04 05:04:00,49.8,49.8,29.12,NNE,24,0.0,0.0,100,0.00,,---,0.00,VWS V14.00,2013-06-04 10:04:00,
2013-06-04 05:05:00,49.8,49.8,29.12,NNE,24,0.0,0.0,100,0.00,,---,0.00,VWS V14.00,2013-06-04 10:05:00,
2013-06-04 05:06:00,49.8,49.8,29.12,NNE,24,0.0,0.0,100,0.00,,---,0.00,VWS V14.00,2013-06-04 10:06:00,
2013-06-04 05:07:00,49.8,49.8,29.12,NNE,24,0.0,0.0,100,0.00,,---,0.00,VWS V14.00,2013-06-04 10:07:00,
2013-06-04 05:08:00,49.8,49.8,29.12,NNE,24,0.0,0.0,100,0.00,,---,0.00,VWS V14.00,2013-06-04 10:08:00,
2013-06-04 05:09:00,49.8,49.8,29.12,NNE,24,0.0,0.0,100,0.00,,---,0.00,VWS V14.00,2013-06-04 10:09:00,
2013-06-04 05:10:00,49.8,49.8,29.12,NNE,24,0.0,0.0,100,0.00,,---,0.00,VWS V14.00,2013-06-04 10:10:00,
2013-06-04 05:11:00,49.8,49.8,29.12,NNE,24,0.0,0.0,100,0.00,,---,0.00,VWS V14.00,2013-06-04 10:11:00,
2013-06-04 05:12:00,49.8,49.8,29.12,NNE,24,0.0,0.0,100,0.00,,---,0.00,VWS V14.00,2013-06-04 10:12:00,
2013-06-04 05:13:00,49.6,49.6,29.12,NNE,24,0.0,0.0,100,0.00,,---,0.00,VWS V14.00,2013-06-04 10:13:00,
2013-06-04 05:14:00,49.8,49.8,29.12,NNE,24,0.0,0.0,100,0.00,,---,0.00,VWS V14.00,2013-06-04 10:14:00,
2013-06-04 05:15:00,49.8,49.8,29.12,NNE,24,0.0,0.0,100,0.00,,---,0.00,VWS V14.00,2013-06-04 10:15:00,
2013-06-04 05:16:00,50.0,50.0,29.12,NNE,24,0.0,0.0,100,0.00,,---,0.00,VWS V14.00,2013-06-04 10:16:00,
2013-06-04 05:17:00,49.8,49.8,29.12,NNE,24,0.0,0.0,100,0.00,,---,0.00,VWS V14.00,2013-06-04 10:17:00,
2013-06-04 05:18:00,50.0,50.0,29.12,NNE,24,0.0,0.0,100,0.00,,---,0.00,VWS V14.00,2013-06-04 10:18:00,
2013-06-04 05:19:00,50.0,50.0,29.12,NNE,24,0.0,0.0,100,0.00,,---,0.00,VWS V14.00,2013-06-04 10:19:00,
2013-06-04 05:20:00,50.0,50.0,29.12,NNE,24,0.0,0.0,100,0.00,,---,0.00,VWS V14.00,2013-06-04 10:20:00,
2013-06-04 05:21:00,50.2,50.2,29.12,East,82,0.0,0.0,100,0.00,,---,0.00,VWS V14.00,2013-06-04 10:21:00,
2013-06-04 05:22:00,50.2,50.2,29.12,NNE,24,0.0,0.0,100,0.00,,---,0.00,VWS V14.00,2013-06-04 10:22:00,
2013-06-04 05:23:00,50.2,50.2,29.12,NNE,24,0.0,0.0,100,0.00,,---,0.00,VWS V14.00,2013-06-04 10:23:00,
2013-06-04 05:24:00,50.2,50.2,29.12,East,82,0.0,0.0,100,0.00,,---,0.00,VWS V14.00,2013-06-04 10:24:00,
2013-06-04 05:25:00,50.2,50.2,29.12,East,82,0.0,0.0,100,0.00,,---,0.00,VWS V14.00,2013-06-04 10:25:00,
2013-06-04 05:26:00,50.4,50.4,29.12,ESE,114,0.0,0.0,100,0.00,,---,0.00,VWS V14.00,2013-06-04 10:26:00,
2013-06-04 05:27:00,50.4,50.4,29.12,ESE,114,0.0,0.0,100,0.00,,---,0.00,VWS V14.00,2013-06-04 10:27:00,
2013-06-04 05:28:00,50.4,50.4,29.12,ESE,114,0.0,0.0,100,0.00,,---,0.00,VWS V14.00,2013-06-04 10:28:00,
2013-06-04 05:29:00,50.4,50.4,29.12,ESE,114,0.0,0.0,100,0.00,,---,0.00,VWS V14.00,2013-06-04 10:29:00,
2013-06-04 05:30:00,50.5,50.5,29.12,ESE,114,0.0,0.0,100,0.00,,---,0.00,VWS V14.00,2013-06-04 10:30:00,
2013-06-04 05:31:00,50.5,50.5,29.12,ESE,114,0.0,0.0,100,0.00,,---,0.00,VWS V14.00,2013-06-04 10:31:00,
2013-06-04 05:32:00,50.5,50.5,29.12,ESE,114,0.0,0.0,100,0.00,,---,0.00,VWS V14.00,2013-06-04 10:32:00,
2013-06-04 05:33:00,50.5,50.5,29.12,ESE,114,0.0,0.0,100,0.00,,---,0.00,VWS V14.00,2013-06-04 10:33:00,
2013-06-04 05:34:00,50.5,50.5,29.12,ESE,114,0.0,0.0,100,0.00,,---,0.00,VWS V14.00,2013-06-04 10:34:00,
2013-06-04 05:35:00,50.5,50.5,29.12,ESE,114,0.0,0.0,100,0.00,,---,0.00,VWS V14.00,2013-06-04 10:35:00,
2013-06-04 05:36:00,50.5,50.5,29.12,ESE,114,0.0,0.0,100,0.00,,---,0.00,VWS V14.00,2013-06-04 10:36:00,
2013-06-04 05:37:00,50.5,50.5,29.12,NE,46,0.0,0.0,100,0.00,,---,0.00,VWS V14.00,2013-06-04 10:37:00,
2013-06-04 05:38:00,50.5,50.5,29.12,ENE,60,0.0,0.0,100,0.00,,---,0.00,VWS V14.00,2013-06-04 10:38:00,
2013-06-04 05:39:00,50.5,50.5,29.12,ENE,60,0.0,0.0,100,0.00,,---,0.00,VWS V14.00,2013-06-04 10:39:00,
2013-06-04 05:40:00,50.7,50.7,29.12,NE,46,0.0,0.0,100,0.00,,---,0.00,VWS V14.00,2013-06-04 10:40:00,
2013-06-04 05:41:00,50.7,50.7,29.12,NE,46,0.0,0.0,100,0.00,,---,0.00,VWS V14.00,2013-06-04 10:41:00,
2013-06-04 05:42:00,50.9,50.9,29.12,NNE,26,0.0,0.0,100,0.00,,---,0.00,VWS V14.00,2013-06-04 10:42:00,
2013-06-04 05:43:00,50.7,50.7,29.12,North,7,0.0,0.0,100,0.00,,---,0.00,VWS V14.00,2013-06-04 10:43:00,
2013-06-04 05:44:00,50.9,50.9,29.12,NNE,27,0.0,0.0,100,0.00,,---,0.00,VWS V14.00,2013-06-04 10:44:00,
2013-06-04 05:45:00,50.9,50.9,29.12,NNE,26,0.0,0.0,100,0.00,,---,0.00,VWS V14.00,2013-06-04 10:45:00,
2013-06-04 05:46:00,50.9,50.9,29.12,NNE,27,0.0,0.0,100,0.00,,---,0.00,VWS V14.00,2013-06-04 10:46:00,
2013-06-04 05:47:00,51.1,51.1,29.12,NNE,22,0.0,0.0,100,0.00,,---,0.00,VWS V14.00,2013-06-04 10:47:00,
2013-06-04 05:48:00,51.1,51.1,29.12,NNE,26,0.0,0.0,100,0.00,,---,0.00,VWS V14.00,2013-06-04 10:48:00,
2013-06-04 05:49:00,51.1,51.1,29.12,NNE,22,0.0,0.0,100,0.00,,---,0.00,VWS V14.00,2013-06-04 10:49:00,
2013-06-04 05:50:00,51.1,51.1,29.12,NNE,22,0.0,0.0,100,0.00,,---,0.00,VWS V14.00,2013-06-04 10:50:00,
2013-06-04 05:51:00,51.1,51.1,29.12,NNE,20,0.0,0.0,100,0.00,,---,0.00,VWS V14.00,2013-06-04 10:51:00,
2013-06-04 05:52:00,51.3,51.3,29.12,NE,37,0.0,0.0,100,0.00,,---,0.00,VWS V14.00,2013-06-04 10:52:00,
2013-06-04 05:53:00,51.3,51.3,29.12,NNE,20,0.0,0.0,100,0.00,,---,0.00,VWS V14.00,2013-06-04 10:53:00,
2013-06-04 05:54:00,51.3,51.3,29.12,NE,37,0.0,3.1,100,0.00,,---,0.00,VWS V14.00,2013-06-04 10:54:00,
2013-06-04 05:55:00,51.4,51.4,29.12,NE,37,0.0,0.0,100,0.00,,---,0.00,VWS V14.00,2013-06-04 10:55:00,
2013-06-04 05:56:00,51.4,51.4,29.12,NE,37,0.0,0.0,100,0.00,,---,0.00,VWS V14.00,2013-06-04 10:56:00,
2013-06-04 05:57:00,51.6,51.6,29.12,North,7,0.0,0.0,100,0.00,,---,0.00,VWS V14.00,2013-06-04 10:57:00,
2013-06-04 05:58:00,51.6,51.6,29.12,SE,135,0.0,2.7,100,0.00,,---,0.00,VWS V14.00,2013-06-04 10:58:00,
2013-06-04 05:59:00,51.6,51.6,29.12,North,7,0.0,0.0,100,0.00,,---,0.00,VWS V14.00,2013-06-04 10:59:00,
2013-06-04 06:00:00,51.6,51.6,29.12,North,7,0.0,0.0,100,0.00,,---,0.00,VWS V14.00,2013-06-04 11:00:00,
2013-06-04 06:01:00,51.6,51.6,29.12,North,7,0.0,0.0,100,0.00,,---,0.00,VWS V14.00,2013-06-04 11:01:00,
2013-06-04 06:02:00,51.8,51.8,29.12,NE,48,0.0,0.0,100,0.00,,---,0.00,VWS V14.00,2013-06-04 11:02:00,
2013-06-04 06:03:00,51.8,51.8,29.12,NE,48,0.0,0.0,100,0.00,,---,0.00,VWS V14.00,2013-06-04 11:03:00,
2013-06-04 06:04:00,51.8,51.8,29.12,NE,48,0.0,0.0,100,0.00,,---,0.00,VWS V14.00,2013-06-04 11:04:00,
2013-06-04 06:05:00,51.8,51.8,29.12,NNE,25,0.0,0.0,100,0.00,,---,0.00,VWS V14.00,2013-06-04 11:05:00,
2013-06-04 06:06:00,52.0,52.0,29.12,SE,127,0.0,0.0,100,0.00,,---,0.00,VWS V14.00,2013-06-04 11:06:00,
2013-06-04 06:07:00,52.2,52.2,29.12,North,9,0.0,0.0,100,0.00,,---,0.00,VWS V14.00,2013-06-04 11:07:00,
2013-06-04 06:08:00,52.0,52.0,29.12,SE,127,0.0,0.0,100,0.00,,---,0.00,VWS V14.00,2013-06-04 11:08:00,
2013-06-04 06:09:00,52.2,52.2,29.12,East,85,0.0,0.0,100,0.00,,---,0.00,VWS V14.00,2013-06-04 11:09:00,
2013-06-04 06:10:00,52.0,52.0,29.12,North,7,0.0,0.0,100,0.00,,---,0.00,VWS V14.00,2013-06-04 11:10:00,
2013-06-04 06:11:00,52.2,52.2,29.12,NNE,12,0.0,0.0,100,0.00,,---,0.00,VWS V14.00,2013-06-04 11:11:00,
2013-06-04 06:12:00,52.3,52.3,29.12,NNE,25,0.0,0.0,100,0.00,,---,0.00,VWS V14.00,2013-06-04 11:12:00,
2013-06-04 06:13:00,52.3,52.3,29.12,NNE,25,0.0,0.0,100,0.00,,---,0.00,VWS V14.00,2013-06-04 11:13:00,
2013-06-04 06:14:00,52.3,52.3,29.12,NNE,25,0.0,0.0,100,0.00,,---,0.00,VWS V14.00,2013-06-04 11:14:00,
2013-06-04 06:15:00,52.3,51.2,29.12,NNE,25,0.0,0.0,96,0.00,,---,0.00,VWS V14.00,2013-06-04 11:15:00,
2013-06-04 06:16:00,52.5,51.4,29.12,ENE,57,2.2,3.1,96,0.00,,---,0.00,VWS V14.00,2013-06-04 11:16:00,
2013-06-04 06:17:00,52.9,51.2,29.12,ENE,63,0.0,0.0,94,0.00,,---,0.00,VWS V14.00,2013-06-04 11:17:00,
2013-06-04 06:18:00,52.7,51.0,29.12,ENE,57,0.0,0.0,94,0.00,,---,0.00,VWS V14.00,2013-06-04 11:18:00,
2013-06-04 06:19:00,52.9,51.2,29.12,East,90,0.0,0.0,94,0.00,,---,0.00,VWS V14.00,2013-06-04 11:19:00,
2013-06-04 06:20:00,52.9,50.6,29.12,ENE,65,0.0,0.0,92,0.00,,---,0.00,VWS V14.00,2013-06-04 11:20:00,
2013-06-04 06:21:00,53.1,50.8,29.12,NE,36,0.0,0.0,92,0.00,,---,0.00,VWS V14.00,2013-06-04 11:21:00,
2013-06-04 06:22:00,53.1,49.6,29.12,ENE,64,0.0,0.0,88,0.00,,---,0.00,VWS V14.00,2013-06-04 11:22:00,
2013-06-04 06:23:00,53.1,50.8,29.12,NNE,19,0.0,0.0,92,0.00,,---,0.00,VWS V14.00,2013-06-04 11:23:00,
2013-06-04 06:24:00,53.1,49.6,29.12,ENE,64,0.0,0.0,88,0.00,,---,0.00,VWS V14.00,2013-06-04 11:24:00,
2013-06-04 06:25:00,53.1,49.0,29.12,NNE,21,0.0,0.0,86,0.00,,---,0.00,VWS V14.00,2013-06-04 11:25:00,
2013-06-04 06:26:00,53.4,49.3,29.12,NNE,22,0.0,3.6,86,0.00,,---,0.00,VWS V14.00,2013-06-04 11:26:00,
2013-06-04 06:27:00,53.6,48.2,29.12,ESE,122,0.0,0.0,82,0.00,,---,0.00,VWS V14.00,2013-06-04 11:27:00,
2013-06-04 06:28:00,53.6,49.5,29.12,NNE,22,0.0,0.0,86,0.00,,---,0.00,VWS V14.00,2013-06-04 11:28:00,
2013-06-04 06:29:00,53.6,48.9,29.12,ESE,122,0.0,3.6,84,0.00,,---,0.00,VWS V14.00,2013-06-04 11:29:00,
2013-06-04 06:30:00,53.6,48.2,29.12,SE,127,0.0,0.0,82,0.00,,---,0.00,VWS V14.00,2013-06-04 11:30:00,
2013-06-04 06:31:00,53.8,48.4,29.12,West,263,0.0,0.0,82,0.00,,---,0.00,VWS V14.00,2013-06-04 11:31:00,
2013-06-04 06:32:00,54.1,48.1,29.12,ESE,107,0.0,0.0,80,0.00,,---,0.00,VWS V14.00,2013-06-04 11:32:00,
2013-06-04 06:33:00,54.0,48.6,29.12,ESE,109,0.0,0.0,82,0.00,,---,0.00,VWS V14.00,2013-06-04 11:33:00,
2013-06-04 06:34:00,54.1,48.1,29.12,ESE,107,0.0,0.0,80,0.00,,---,0.00,VWS V14.00,2013-06-04 11:34:00,
2013-06-04 06:35:00,54.3,48.3,29.12,ESE,107,0.0,0.0,80,0.00,,---,0.00,VWS V14.00,2013-06-04 11:35:00,
2013-06-04 06:36:00,54.3,48.3,29.12,ESE,107,0.0,0.0,80,0.00,,---,0.00,VWS V14.00,2013-06-04 11:36:00,
2013-06-04 06:37:00,54.7,47.3,29.12,ESE,113,0.0,0.0,76,0.00,,---,0.00,VWS V14.00,2013-06-04 11:37:00,
2013-06-04 06:38:00,54.5,48.5,29.12,SE,133,0.0,0.0,80,0.00,,---,0.00,VWS V14.00,2013-06-04 11:38:00,
2013-06-04 06:39:00,54.5,47.1,29.12,ESE,117,0.0,0.0,76,0.00,,---,0.00,VWS V14.00,2013-06-04 11:39:00,
2013-06-04 06:40:00,54.7,47.3,29.12,ESE,111,0.0,0.0,76,0.00,,---,0.00,VWS V14.00,2013-06-04 11:40:00,
2013-06-04 06:41:00,54.9,47.5,29.12,ESE,111,0.0,0.0,76,0.00,,---,0.00,VWS V14.00,2013-06-04 11:41:00,
2013-06-04 06:42:00,55.2,47.8,29.12,NNE,15,0.0,0.0,76,0.00,,---,0.00,VWS V14.00,2013-06-04 11:42:00,
2013-06-04 06:43:00,55.0,47.6,29.12,North,350,0.0,0.0,76,0.00,,---,0.00,VWS V14.00,2013-06-04 11:43:00,
2013-06-04 06:44:00,55.0,47.6,29.12,NE,41,0.0,4.9,76,0.00,,---,0.00,VWS V14.00,2013-06-04 11:44:00,
2013-06-04 06:45:00,55.2,47.8,29.12,North,4,0.0,2.7,76,0.00,,---,0.00,VWS V14.00,2013-06-04 11:45:00,
2013-06-04 06:46:00,55.2,47.8,29.12,SSW,197,0.0,3.1,76,0.00,,---,0.00,VWS V14.00,2013-06-04 11:46:00,
2013-06-04 06:47:00,55.8,46.1,29.12,ESE,116,0.0,0.0,70,0.00,,---,0.00,VWS V14.00,2013-06-04 11:47:00,
2013-06-04 06:48:00,55.6,46.0,29.12,SE,133,0.0,0.0,70,0.00,,---,0.00,VWS V14.00,2013-06-04 11:48:00,
2013-06-04 06:49:00,55.6,46.0,29.12,SE,133,0.0,0.0,70,0.00,,---,0.00,VWS V14.00,2013-06-04 11:49:00,
2013-06-04 06:50:00,55.8,46.1,29.12,ESE,116,0.0,0.0,70,0.00,,---,0.00,VWS V14.00,2013-06-04 11:50:00,
2013-06-04 06:51:00,55.9,46.3,29.12,NNE,12,0.0,0.0,70,0.00,,---,0.00,VWS V14.00,2013-06-04 11:51:00,
2013-06-04 06:52:00,56.3,46.7,29.15,NW,321,0.0,0.0,70,0.00,,---,0.00,VWS V14.00,2013-06-04 11:52:00,
2013-06-04 06:53:00,56.1,46.5,29.15,NE,48,0.0,2.7,70,0.00,,---,0.00,VWS V14.00,2013-06-04 11:53:00,
2013-06-04 06:54:00,56.3,46.7,29.15,NW,321,0.0,0.0,70,0.00,,---,0.00,VWS V14.00,2013-06-04 11:54:00,
2013-06-04 06:55:00,56.5,46.8,29.15,NW,321,0.0,0.0,70,0.00,,---,0.00,VWS V14.00,2013-06-04 11:55:00,
2013-06-04 06:56:00,56.7,47.0,29.15,North,353,0.0,0.0,70,0.00,,---,0.00,VWS V14.00,2013-06-04 11:56:00,
2013-06-04 06:57:00,56.8,47.2,29.15,ENE,68,0.0,2.7,70,0.00,,---,0.00,VWS V14.00,2013-06-04 11:57:00,
2013-06-04 06:58:00,56.7,47.0,29.15,NE,51,0.0,0.0,70,0.00,,---,0.00,VWS V14.00,2013-06-04 11:58:00,
2013-06-04 06:59:00,56.8,47.2,29.15,East,89,2.7,4.0,70,0.00,,---,0.00,VWS V14.00,2013-06-04 11:59:00,
2013-06-04 07:00:00,56.8,47.2,29.15,NE,41,3.6,3.6,70,0.00,,---,0.00,VWS V14.00,2013-06-04 12:00:00,
2013-06-04 07:01:00,57.0,47.3,29.15,NE,41,0.0,3.6,70,0.00,,---,0.00,VWS V14.00,2013-06-04 12:01:00,
2013-06-04 07:02:00,57.2,46.8,29.15,ENE,76,0.0,0.0,68,0.00,,---,0.00,VWS V14.00,2013-06-04 12:02:00,
2013-06-04 07:03:00,57.2,46.8,29.15,NNE,24,0.0,0.0,68,0.00,,---,0.00,VWS V14.00,2013-06-04 12:03:00,
2013-06-04 07:04:00,57.2,46.8,29.15,ENE,76,0.0,0.0,68,0.00,,---,0.00,VWS V14.00,2013-06-04 12:04:00,
2013-06-04 07:05:00,57.4,46.9,29.15,ENE,76,0.0,0.0,68,0.00,,---,0.00,VWS V14.00,2013-06-04 12:05:00,
2013-06-04 07:06:00,57.4,46.9,29.15,SE,124,3.1,3.1,68,0.00,,---,0.00,VWS V14.00,2013-06-04 12:06:00,
2013-06-04 07:07:00,57.7,47.3,29.12,NE,38,0.0,0.0,68,0.00,,---,0.00,VWS V14.00,2013-06-04 12:07:00,
2013-06-04 07:08:00,57.6,47.1,29.15,NNW,345,2.2,4.0,68,0.00,,---,0.00,VWS V14.00,2013-06-04 12:08:00,
2013-06-04 07:09:00,57.6,47.1,29.12,NNE,20,0.0,3.1,68,0.00,,---,0.00,VWS V14.00,2013-06-04 12:09:00,
2013-06-04 07:10:00,57.7,47.3,29.12,NE,38,0.0,0.0,68,0.00,,---,0.00,VWS V14.00,2013-06-04 12:10:00,
2013-06-04 07:11:00,57.9,47.4,29.12,WNW,290,0.0,0.0,68,0.00,,---,0.00,VWS V14.00,2013-06-04 12:11:00,
2013-06-04 07:12:00,58.1,47.6,29.12,SE,145,0.0,0.0,68,0.00,,---,0.00,VWS V14.00,2013-06-04 12:12:00,
2013-06-04 07:13:00,57.9,47.4,29.12,NNE,20,2.2,2.2,68,0.00,,---,0.00,VWS V14.00,2013-06-04 12:13:00,
2013-06-04 07:14:00,58.1,47.6,29.12,SSE,157,0.0,2.7,68,0.00,,---,0.00,VWS V14.00,2013-06-04 12:14:00,
2013-06-04 07:15:00,58.1,47.6,29.12,North,10,0.0,0.0,68,0.00,,---,0.00,VWS V14.00,2013-06-04 12:15:00,
2013-06-04 07:16:00,58.3,47.8,29.12,NE,39,0.0,3.6,68,0.00,,---,0.00,VWS V14.00,2013-06-04 12:16:00,
2013-06-04 07:17:00,58.6,48.1,29.12,SE,125,2.7,4.0,68,0.00,,---,0.00,VWS V14.00,2013-06-04 12:17:00,
2013-06-04 07:18:00,58.5,48.0,29.12,NE,37,3.6,3.6,68,0.00,,---,0.00,VWS V14.00,2013-06-04 12:18:00,
2013-06-04 07:19:00,58.5,48.0,29.12,East,84,2.7,4.0,68,0.00,,---,0.00,VWS V14.00,2013-06-04 12:19:00,
2013-06-04 07:20:00,58.6,48.1,29.12,SSE,149,2.7,4.0,68,0.00,,---,0.00,VWS V14.00,2013-06-04 12:20:00,
2013-06-04 07:21:00,58.6,48.1,29.12,East,100,0.0,3.1,68,0.00,,---,0.00,VWS V14.00,2013-06-04 12:21:00,
2013-06-04 07:22:00,59.2,48.6,29.15,North,353,0.0,0.0,68,0.00,,---,0.00,VWS V14.00,2013-06-04 12:22:00,
2013-06-04 07:23:00,58.8,48.3,29.12,SE,130,0.0,0.0,68,0.00,,---,0.00,VWS V14.00,2013-06-04 12:23:00,
2013-06-04 07:24:00,59.0,48.5,29.15,SE,130,0.0,0.0,68,0.00,,---,0.00,VWS V14.00,2013-06-04 12:24:00,
2013-06-04 07:25:00,59.2,48.6,29.15,North,353,0.0,0.0,68,0.00,,---,0.00,VWS V14.00,2013-06-04 12:25:00,
2013-06-04 07:26:00,59.2,48.6,29.15,North,353,0.0,0.0,68,0.00,,---,0.00,VWS V14.00,2013-06-04 12:26:00,
2013-06-04 07:27:00,59.7,49.2,29.15,NNW,346,2.2,3.6,68,0.00,,---,0.00,VWS V14.00,2013-06-04 12:27:00,
2013-06-04 07:28:00,59.5,49.0,29.15,North,3,0.0,0.0,68,0.00,,---,0.00,VWS V14.00,2013-06-04 12:28:00,
2013-06-04 07:29:00,59.7,49.2,29.15,NNW,342,2.7,2.7,68,0.00,,---,0.00,VWS V14.00,2013-06-04 12:29:00,
2013-06-04 07:30:00,59.7,49.2,29.15,North,353,2.7,3.6,68,0.00,,---,0.00,VWS V14.00,2013-06-04 12:30:00,
2013-06-04 07:31:00,60.1,49.5,29.15,ENE,74,0.0,3.6,68,0.00,,---,0.00,VWS V14.00,2013-06-04 12:31:00,
2013-06-04 07:32:00,60.6,50.0,29.15,NNE,23,2.7,4.9,68,0.00,,---,0.00,VWS V14.00,2013-06-04 12:32:00,
2013-06-04 07:33:00,60.4,49.8,29.15,NE,43,4.0,4.0,68,0.00,,---,0.00,VWS V14.00,2013-06-04 12:33:00,
2013-06-04 07:34:00,60.6,50.0,29.15,North,353,4.9,5.4,68,0.00,,---,0.00,VWS V14.00,2013-06-04 12:34:00,
2013-06-04 07:35:00,60.6,50.0,29.15,NE,39,7.6,7.6,68,0.00,,---,0.00,VWS V14.00,2013-06-04 12:35:00,
2013-06-04 07:36:00,61.0,50.4,29.15,NNE,29,4.0,7.6,68,0.00,,---,0.00,VWS V14.00,2013-06-04 12:36:00,
2013-06-04 07:37:00,61.7,51.0,29.15,ENE,62,2.7,3.1,68,0.00,,---,0.00,VWS V14.00,2013-06-04 12:37:00,
2013-06-04 07:38:00,61.2,50.5,29.15,East,98,4.0,6.3,68,0.00,,---,0.00,VWS V14.00,2013-06-04 12:38:00,
2013-06-04 07:39:00,61.5,50.9,29.15,East,97,0.0,4.0,68,0.00,,---,0.00,VWS V14.00,2013-06-04 12:39:00,
2013-06-04 07:40:00,61.7,51.0,29.15,North,4,3.1,3.1,68,0.00,,---,0.00,VWS V14.00,2013-06-04 12:40:00,
2013-06-04 07:41:00,61.9,51.2,29.15,North,357,4.9,4.9,68,0.00,,---,0.00,VWS V14.00,2013-06-04 12:41:00,
2013-06-04 07:42:00,62.2,51.6,29.15,East,96,0.0,5.4,68,0.00,,---,0.00,VWS V14.00,2013-06-04 12:42:00,
2013-06-04 07:43:00,62.1,51.4,29.15,SE,127,4.9,4.9,68,0.00,,---,0.00,VWS V14.00,2013-06-04 12:43:00,
2013-06-04 07:44:00,62.2,51.6,29.15,ENE,70,5.4,5.4,68,0.00,,---,0.00,VWS V14.00,2013-06-04 12:44:00,
2013-06-04 07:45:00,62.2,51.6,29.15,East,96,0.0,5.4,68,0.00,,---,0.00,VWS V14.00,2013-06-04 12:45:00,
2013-06-04 07:46:00,62.2,51.6,29.15,East,87,3.1,3.6,68,0.00,,---,0.00,VWS V14.00,2013-06-04 12:46:00,
2013-06-04 07:47:00,62.8,51.3,29.15,ESE,118,4.0,4.0,66,0.00,,---,0.00,VWS V14.00,2013-06-04 12:47:00,
2013-06-04 07:48:00,62.6,51.1,29.15,East,91,4.9,5.4,66,0.00,,---,0.00,VWS V14.00,2013-06-04 12:48:00,
2013-06-04 07:49:00,62.8,51.3,29.15,SE,130,0.0,4.9,66,0.00,,---,0.00,VWS V14.00,2013-06-04 12:49:00,
2013-06-04 07:50:00,63.0,51.4,29.15,East,96,3.1,4.0,66,0.00,,---,0.00,VWS V14.00,2013-06-04 12:50:00,
2013-06-04 07:51:00,63.1,51.6,29.15,NNW,335,2.7,3.1,66,0.00,,---,0.00,VWS V14.00,2013-06-04 12:51:00,
2013-06-04 07:52:00,64.0,52.5,29.15,East,97,3.6,3.6,66,0.00,,---,0.00,VWS V14.00,2013-06-04 12:52:00,
2013-06-04 07:53:00,63.9,52.3,29.15,SSE,148,0.0,4.0,66,0.00,,---,0.00,VWS V14.00,2013-06-04 12:53:00,
2013-06-04 07:54:00,63.9,52.3,29.15,NNE,12,0.0,0.0,66,0.00,,---,0.00,VWS V14.00,2013-06-04 12:54:00,
2013-06-04 07:55:00,64.2,52.6,29.15,NW,310,4.0,4.0,66,0.00,,---,0.00,VWS V14.00,2013-06-04 12:55:00,
2013-06-04 07:56:00,64.2,52.6,29.15,SE,130,2.7,4.0,66,0.00,,---,0.00,VWS V14.00,2013-06-04 12:56:00,
2013-06-04 07:57:00,64.8,53.2,29.15,NE,56,0.0,0.0,66,0.00,,---,0.00,VWS V14.00,2013-06-04 12:57:00,
2013-06-04 07:58:00,64.6,53.0,29.15,SE,131,0.0,2.7,66,0.00,,---,0.00,VWS V14.00,2013-06-04 12:58:00,
2013-06-04 07:59:00,64.8,53.2,29.15,East,81,0.0,5.8,66,0.00,,---,0.00,VWS V14.00,2013-06-04 12:59:00,
2013-06-04 08:00:00,64.8,53.2,29.15,SE,140,2.7,3.6,66,0.00,,---,0.00,VWS V14.00,2013-06-04 13:00:00,
2013-06-04 08:01:00,64.9,53.3,29.15,ESE,106,3.1,5.4,66,0.00,,---,0.00,VWS V14.00,2013-06-04 13:01:00,
2013-06-04 08:02:00,65.5,53.8,29.15,ENE,69,0.0,0.0,66,0.00,,---,0.00,VWS V14.00,2013-06-04 13:02:00,
2013-06-04 08:03:00,65.1,53.5,29.15,East,91,2.7,5.4,66,0.00,,---,0.00,VWS V14.00,2013-06-04 13:03:00,
2013-06-04 08:04:00,65.3,53.7,29.15,East,80,0.0,4.0,66,0.00,,---,0.00,VWS V14.00,2013-06-04 13:04:00,
2013-06-04 08:05:00,65.5,53.8,29.15,ENE,69,0.0,0.0,66,0.00,,---,0.00,VWS V14.00,2013-06-04 13:05:00,
2013-06-04 08:06:00,65.5,53.8,29.15,NNE,33,3.1,5.8,66,0.00,,---,0.00,VWS V14.00,2013-06-04 13:06:00,
2013-06-04 08:07:00,65.8,54.2,29.15,SE,140,2.7,4.0,66,0.00,,---,0.00,VWS V14.00,2013-06-04 13:07:00,
2013-06-04 08:08:00,65.7,54.0,29.15,SSW,200,2.7,4.0,66,0.00,,---,0.00,VWS V14.00,2013-06-04 13:08:00,
2013-06-04 08:09:00,65.7,54.0,29.15,South,170,3.6,5.8,66,0.00,,---,0.00,VWS V14.00,2013-06-04 13:09:00,
2013-06-04 08:10:00,65.8,54.2,29.15,SE,140,2.7,4.0,66,0.00,,---,0.00,VWS V14.00,2013-06-04 13:10:00,
2013-06-04 08:11:00,66.0,54.3,29.15,ESE,118,3.1,5.8,66,0.00,,---,0.00,VWS V14.00,2013-06-04 13:11:00,
2013-06-04 08:12:00,66.6,54.0,29.15,SSE,158,3.1,5.4,64,0.00,,---,0.00,VWS V14.00,2013-06-04 13:12:00,
2013-06-04 08:13:00,66.4,53.8,29.15,ESE,116,2.7,3.6,64,0.00,,---,0.00,VWS V14.00,2013-06-04 13:13:00,
2013-06-04 08:14:00,66.4,53.8,29.15,ENE,60,5.4,5.8,64,0.00,,---,0.00,VWS V14.00,2013-06-04 13:14:00,
2013-06-04 08:15:00,66.6,54.0,29.15,SSE,158,3.1,5.4,64,0.00,,---,0.00,VWS V14.00,2013-06-04 13:15:00,
2013-06-04 08:16:00,66.6,54.0,29.15,ESE,111,0.0,3.6,64,0.00,,---,0.00,VWS V14.00,2013-06-04 13:16:00,
2013-06-04 08:17:00,66.9,54.4,29.15,SSE,163,3.1,3.1,64,0.00,,---,0.00,VWS V14.00,2013-06-04 13:17:00,
2013-06-04 08:18:00,66.7,54.2,29.15,ENE,75,7.2,7.2,64,0.00,,---,0.00,VWS V14.00,2013-06-04 13:18:00,
2013-06-04 08:19:00,66.9,54.4,29.15,ENE,57,4.0,7.2,64,0.00,,---,0.00,VWS V14.00,2013-06-04 13:19:00,
2013-06-04 08:20:00,66.9,54.4,29.15,SSE,163,3.1,5.8,64,0.00,,---,0.00,VWS V14.00,2013-06-04 13:20:00,
2013-06-04 08:21:00,66.9,54.4,29.15,NNE,14,3.6,4.0,64,0.00,,---,0.00,VWS V14.00,2013-06-04 13:21:00,
2013-06-04 08:22:00,67.1,54.5,29.15,South,172,3.6,3.6,64,0.00,,---,0.00,VWS V14.00,2013-06-04 13:22:00,
2013-06-04 08:23:00,67.1,54.5,29.15,NNW,339,0.0,8.1,64,0.00,,---,0.00,VWS V14.00,2013-06-04 13:23:00,
2013-06-04 08:24:00,67.1,54.5,29.15,ENE,58,2.7,3.1,64,0.00,,---,0.00,VWS V14.00,2013-06-04 13:24:00,
2013-06-04 08:25:00,67.1,54.5,29.15,South,172,3.6,3.6,64,0.00,,---,0.00,VWS V14.00,2013-06-04 13:25:00,
2013-06-04 08:26:00,67.1,54.5,29.15,North,353,2.7,3.6,64,0.00,,---,0.00,VWS V14.00,2013-06-04 13:26:00,
2013-06-04 08:27:00,67.5,54.9,29.15,East,93,2.7,2.7,64,0.00,,---,0.00,VWS V14.00,2013-06-04 13:27:00,
2013-06-04 08:28:00,67.3,54.7,29.15,South,180,2.7,4.0,64,0.00,,---,0.00,VWS V14.00,2013-06-04 13:28:00,
2013-06-04 08:29:00,67.5,54.9,29.15,SSW,194,4.0,4.5,64,0.00,,---,0.00,VWS V14.00,2013-06-04 13:29:00,
2013-06-04 08:30:00,67.5,54.9,29.15,East,93,2.7,4.0,64,0.00,,---,0.00,VWS V14.00,2013-06-04 13:30:00,
2013-06-04 08:31:00,67.5,54.9,29.15,ENE,75,4.0,4.0,64,0.00,,---,0.00,VWS V14.00,2013-06-04 13:31:00,
2013-06-04 08:32:00,67.5,54.9,29.15,NE,38,2.7,2.7,64,0.00,,---,0.00,VWS V14.00,2013-06-04 13:32:00,
2013-06-04 08:33:00,67.5,54.9,29.15,East,95,3.6,5.8,64,0.00,,---,0.00,VWS V14.00,2013-06-04 13:33:00,
2013-06-04 08:34:00,67.5,54.9,29.15,SE,135,0.0,3.6,64,0.00,,---,0.00,VWS V14.00,2013-06-04 13:34:00,
2013-06-04 08:35:00,67.5,54.9,29.15,NE,38,2.7,4.0,64,0.00,,---,0.00,VWS V14.00,2013-06-04 13:35:00,
2013-06-04 08:36:00,67.6,55.0,29.15,NE,37,3.6,3.6,64,0.00,,---,0.00,VWS V14.00,2013-06-04 13:36:00,
2013-06-04 08:37:00,67.8,55.2,29.12,SE,131,3.1,4.9,64,0.00,,---,0.00,VWS V14.00,2013-06-04 13:37:00,
2013-06-04 08:38:00,67.5,54.9,29.15,SE,125,0.0,2.7,64,0.00,,---,0.00,VWS V14.00,2013-06-04 13:38:00,
2013-06-04 08:39:00,67.6,55.0,29.12,NE,55,5.4,7.6,64,0.00,,---,0.00,VWS V14.00,2013-06-04 13:39:00,
2013-06-04 08:40:00,67.8,55.2,29.12,East,98,4.9,6.3,64,0.00,,---,0.00,VWS V14.00,2013-06-04 13:40:00,
2013-06-04 08:41:00,67.8,55.2,29.12,NE,41,3.6,4.9,64,0.00,,---,0.00,VWS V14.00,2013-06-04 13:41:00,
2013-06-04 08:42:00,67.8,55.2,29.12,NE,42,3.1,3.1,64,0.00,,---,0.00,VWS V14.00,2013-06-04 13:42:00,
2013-06-04 08:43:00,67.6,55.0,29.12,SSE,155,2.7,8.1,64,0.00,,---,0.00,VWS V14.00,2013-06-04 13:43:00,
2013-06-04 08:44:00,67.8,55.2,29.12,SE,138,2.7,4.0,64,0.00,,---,0.00,VWS V14.00,2013-06-04 13:44:00,
2013-06-04 08:45:00,67.8,55.2,29.12,NE,55,0.0,2.7,64,0.00,,---,0.00,VWS V14.00,2013-06-04 13:45:00,
2013-06-04 08:46:00,67.8,55.2,29.12,NNW,343,3.1,3.1,64,0.00,,---,0.00,VWS V14.00,2013-06-04 13:46:00,
2013-06-04 08:47:00,67.3,54.7,29.12,NNE,25,3.6,3.6,64,0.00,,---,0.00,VWS V14.00,2013-06-04 13:47:00,
2013-06-04 08:48:00,67.6,55.0,29.12,NNE,26,5.8,5.8,64,0.00,,---,0.00,VWS V14.00,2013-06-04 13:48:00,
2013-06-04 08:49:00,67.3,54.7,29.12,East,100,4.0,6.3,64,0.00,,---,0.00,VWS V14.00,2013-06-04 13:49:00,
2013-06-04 08:50:00,67.3,54.7,29.12,NNE,18,3.6,4.0,64,0.00,,---,0.00,VWS V14.00,2013-06-04 13:50:00,
2013-06-04 08:51:00,67.3,54.7,29.12,East,99,7.6,7.6,64,0.00,,---,0.00,VWS V14.00,2013-06-04 13:51:00,
2013-06-04 08:52:00,67.5,54.9,29.12,SSE,149,7.2,8.3,64,0.00,,---,0.00,VWS V14.00,2013-06-04 13:52:00,
2013-06-04 08:53:00,67.6,55.0,29.12,NE,45,6.3,6.3,64,0.00,,---,0.00,VWS V14.00,2013-06-04 13:53:00,
2013-06-04 08:54:00,67.5,54.9,29.12,ENE,69,2.2,6.3,64,0.00,,---,0.00,VWS V14.00,2013-06-04 13:54:00,
2013-06-04 08:55:00,67.5,54.9,29.12,East,87,8.3,8.3,64,0.00,,---,0.00,VWS V14.00,2013-06-04 13:55:00,
2013-06-04 08:56:00,67.5,54.9,29.12,NE,39,5.8,8.3,64,0.00,,---,0.00,VWS V14.00,2013-06-04 13:56:00,
2013-06-04 08:57:00,67.5,54.9,29.12,SE,125,3.6,4.0,64,0.00,,---,0.00,VWS V14.00,2013-06-04 13:57:00,
2013-06-04 08:58:00,67.6,55.0,29.12,ENE,64,4.0,7.2,64,0.00,,---,0.00,VWS V14.00,2013-06-04 13:58:00,
2013-06-04 08:59:00,67.5,54.9,29.12,West,269,4.0,5.4,64,0.00,,---,0.00,VWS V14.00,2013-06-04 13:59:00,
2013-06-04 09:00:00,67.5,54.9,29.12,East,89,4.0,4.5,64,0.00,,---,0.00,VWS V14.00,2013-06-04 14:00:00,
2013-06-04 09:01:00,67.5,54.9,29.12,NNW,329,4.9,5.4,64,0.00,,---,0.00,VWS V14.00,2013-06-04 14:01:00,
2013-06-04 09:02:00,67.8,55.2,29.12,NNE,25,2.2,4.0,64,0.00,,---,0.00,VWS V14.00,2013-06-04 14:02:00,
2013-06-04 09:03:00,67.6,55.0,29.12,SSE,154,3.1,4.0,64,0.00,,---,0.00,VWS V14.00,2013-06-04 14:03:00,
2013-06-04 09:04:00,67.6,55.0,29.12,SE,135,2.7,5.8,64,0.00,,---,0.00,VWS V14.00,2013-06-04 14:04:00,
2013-06-04 09:05:00,67.8,55.2,29.12,NNW,341,4.0,4.0,64,0.00,,---,0.00,VWS V14.00,2013-06-04 14:05:00,
2013-06-04 09:06:00,68.2,55.5,29.12,NNE,13,0.0,4.0,64,0.00,,---,0.00,VWS V14.00,2013-06-04 14:06:00,
2013-06-04 09:07:00,68.2,55.5,29.12,East,84,3.6,3.6,64,0.00,,---,0.00,VWS V14.00,2013-06-04 14:07:00,
2013-06-04 09:08:00,68.4,55.7,29.12,North,0,2.7,4.0,64,0.00,,---,0.00,VWS V14.00,2013-06-04 14:08:00,
2013-06-04 09:09:00,68.4,55.7,29.12,NW,317,4.0,4.0,64,0.00,,---,0.00,VWS V14.00,2013-06-04 14:09:00,
2013-06-04 09:10:00,68.2,55.5,29.12,NNE,33,2.2,8.1,64,0.00,,---,0.00,VWS V14.00,2013-06-04 14:10:00,
2013-06-04 09:11:00,68.2,55.5,29.12,SSE,156,5.4,5.4,64,0.00,,---,0.00,VWS V14.00,2013-06-04 14:11:00,
2013-06-04 09:12:00,67.6,55.0,29.12,East,88,2.7,4.0,64,0.00,,---,0.00,VWS V14.00,2013-06-04 14:12:00,
2013-06-04 09:13:00,67.8,55.2,29.12,NNE,16,4.0,5.8,64,0.00,,---,0.00,VWS V14.00,2013-06-04 14:13:00,
2013-06-04 09:14:00,67.8,55.2,29.12,NE,34,3.1,4.0,64,0.00,,---,0.00,VWS V14.00,2013-06-04 14:14:00,
2013-06-04 09:15:00,67.6,55.0,29.12,NNE,22,4.0,5.8,64,0.00,,---,0.00,VWS V14.00,2013-06-04 14:15:00,
2013-06-04 09:16:00,67.6,55.0,29.12,NNW,341,2.7,4.0,64,0.00,,---,0.00,VWS V14.00,2013-06-04 14:16:00,
2013-06-04 09:17:00,68.2,55.5,29.12,ENE,64,8.1,8.1,64,0.00,,---,0.00,VWS V14.00,2013-06-04 14:17:00,
2013-06-04 09:18:00,68.0,55.4,29.12,NNE,14,3.6,4.9,64,0.00,,---,0.00,VWS V14.00,2013-06-04 14:18:00,
2013-06-04 09:19:00,68.0,55.4,29.12,NE,48,0.0,4.9,64,0.00,,---,0.00,VWS V14.00,2013-06-04 14:19:00,
2013-06-04 09:20:00,68.2,55.5,29.12,NNE,22,6.3,6.3,64,0.00,,---,0.00,VWS V14.00,2013-06-04 14:20:00,
2013-06-04 09:21:00,68.4,55.7,29.12,NE,46,2.2,8.1,64,0.00,,---,0.00,VWS V14.00,2013-06-04 14:21:00,
2013-06-04 09:22:00,68.9,56.2,29.15,NE,41,3.6,3.6,64,0.00,,---,0.00,VWS V14.00,2013-06-04 14:22:00,
2013-06-04 09:23:00,68.5,55.9,29.12,East,94,4.0,7.6,64,0.00,,---,0.00,VWS V14.00,2013-06-04 14:23:00,
2013-06-04 09:24:00,68.7,56.1,29.15,South,177,2.2,4.0,64,0.00,,---,0.00,VWS V14.00,2013-06-04 14:24:00,
2013-06-04 09:25:00,68.9,56.2,29.15,North,353,3.1,4.0,64,0.00,,---,0.00,VWS V14.00,2013-06-04 14:25:00,
2013-06-04 09:26:00,69.1,56.4,29.15,SE,135,3.1,3.6,64,0.00,,---,0.00,VWS V14.00,2013-06-04 14:26:00,
2013-06-04 09:27:00,69.4,56.8,29.15,SE,143,6.3,6.3,64,0.00,,---,0.00,VWS V14.00,2013-06-04 14:27:00,
2013-06-04 09:28:00,69.1,56.4,29.15,NNE,18,2.2,5.4,64,0.00,,---,0.00,VWS V14.00,2013-06-04 14:28:00,
2013-06-04 09:29:00,69.3,56.6,29.15,NE,43,2.7,5.4,64,0.00,,---,0.00,VWS V14.00,2013-06-04 14:29:00,
2013-06-04 09:30:00,69.3,56.6,29.15,SSE,151,2.7,2.7,64,0.00,,---,0.00,VWS V14.00,2013-06-04 14:30:00,
2013-06-04 09:31:00,69.4,56.8,29.15,SE,125,2.2,6.3,64,0.00,,---,0.00,VWS V14.00,2013-06-04 14:31:00,
2013-06-04 09:32:00,69.8,57.1,29.15,NW,320,3.1,4.0,64,0.00,,---,0.00,VWS V14.00,2013-06-04 14:32:00,
2013-06-04 09:33:00,69.8,57.1,29.15,North,8,0.0,2.2,64,0.00,,---,0.00,VWS V14.00,2013-06-04 14:33:00,
2013-06-04 09:34:00,69.8,57.1,29.15,NNE,33,2.7,3.6,64,0.00,,---,0.00,VWS V14.00,2013-06-04 14:34:00,
2013-06-04 09:35:00,69.8,57.1,29.15,NE,39,3.1,5.4,64,0.00,,---,0.00,VWS V14.00,2013-06-04 14:35:00,
2013-06-04 09:36:00,70.0,57.3,29.15,NNE,27,2.7,4.0,64,0.00,,---,0.00,VWS V14.00,2013-06-04 14:36:00,
2013-06-04 09:37:00,70.0,57.3,29.12,NNE,23,0.0,2.2,64,0.00,,---,0.00,VWS V14.00,2013-06-04 14:37:00,
2013-06-04 09:38:00,70.0,57.3,29.15,ENE,59,3.6,6.3,64,0.00,,---,0.00,VWS V14.00,2013-06-04 14:38:00,
2013-06-04 09:39:00,70.0,57.3,29.12,North,9,3.6,4.0,64,0.00,,---,0.00,VWS V14.00,2013-06-04 14:39:00,
2013-06-04 09:40:00,70.0,57.3,29.12,ENE,69,2.2,3.6,64,0.00,,---,0.00,VWS V14.00,2013-06-04 14:40:00,
2013-06-04 09:41:00,70.0,57.3,29.12,NNE,26,0.0,2.2,64,0.00,,---,0.00,VWS V14.00,2013-06-04 14:41:00,
2013-06-04 09:42:00,69.6,56.9,29.12,NNE,16,2.2,4.9,64,0.00,,---,0.00,VWS V14.00,2013-06-04 14:42:00,
2013-06-04 09:43:00,70.0,57.3,29.12,North,357,0.0,4.0,64,0.00,,---,0.00,VWS V14.00,2013-06-04 14:43:00,
2013-06-04 09:44:00,70.0,57.3,29.12,North,11,6.3,7.6,64,0.00,,---,0.00,VWS V14.00,2013-06-04 14:44:00,
2013-06-04 09:45:00,69.8,57.1,29.12,NNW,346,4.0,6.3,64,0.00,,---,0.00,VWS V14.00,2013-06-04 14:45:00,
2013-06-04 09:46:00,69.6,56.9,29.12,NE,56,3.6,4.9,64,0.00,,---,0.00,VWS V14.00,2013-06-04 14:46:00,
2013-06-04 09:47:00,70.0,57.3,29.12,East,95,3.6,4.0,64,0.00,,---,0.00,VWS V14.00,2013-06-04 14:47:00,
2013-06-04 09:48:00,69.6,56.9,29.12,North,10,3.6,4.9,64,0.00,,---,0.00,VWS V14.00,2013-06-04 14:48:00,
2013-06-04 09:49:00,69.8,57.1,29.12,ENE,73,0.0,4.0,64,0.00,,---,0.00,VWS V14.00,2013-06-04 14:49:00,
2013-06-04 09:50:00,70.0,57.3,29.12,NE,43,4.0,4.0,64,0.00,,---,0.00,VWS V14.00,2013-06-04 14:50:00,
2013-06-04 09:51:00,70.0,57.3,29.12,North,10,3.6,4.0,64,0.00,,---,0.00,VWS V14.00,2013-06-04 14:51:00,
2013-06-04 09:52:00,71.1,58.3,29.15,NNE,32,7.2,7.2,64,0.00,,---,0.00,VWS V14.00,2013-06-04 14:52:00,
2013-06-04 09:53:00,70.5,57.8,29.12,ESE,105,0.0,0.0,64,0.00,,---,0.00,VWS V14.00,2013-06-04 14:53:00,
2013-06-04 09:54:00,70.7,57.9,29.15,SE,135,0.0,3.6,64,0.00,,---,0.00,VWS V14.00,2013-06-04 14:54:00,
2013-06-04 09:55:00,71.1,58.3,29.15,North,6,3.6,6.3,64,0.00,,---,0.00,VWS V14.00,2013-06-04 14:55:00,
2013-06-04 09:56:00,71.1,58.3,29.15,North,357,4.9,7.2,64,0.00,,---,0.00,VWS V14.00,2013-06-04 14:56:00,
2013-06-04 09:57:00,71.4,58.6,29.15,NNW,343,5.4,5.4,64,0.00,,---,0.00,VWS V14.00,2013-06-04 14:57:00,
2013-06-04 09:58:00,71.2,58.5,29.15,East,85,2.7,5.4,64,0.00,,---,0.00,VWS V14.00,2013-06-04 14:58:00,
2013-06-04 09:59:00,71.2,58.5,29.15,East,98,2.2,3.1,64,0.00,,---,0.00,VWS V14.00,2013-06-04 14:59:00,
2013-06-04 10:00:00,71.4,58.6,29.15,East,87,2.2,4.0,64,0.00,,---,0.00,VWS V14.00,2013-06-04 15:00:00,
2013-06-04 10:01:00,71.4,58.6,29.15,North,0,5.8,5.8,64,0.00,,---,0.00,VWS V14.00,2013-06-04 15:01:00,
2013-06-04 10:02:00,71.6,57.9,29.15,NNE,13,0.0,2.2,62,0.00,,---,0.00,VWS V14.00,2013-06-04 15:02:00,
2013-06-04 10:03:00,71.4,58.6,29.15,ESE,109,6.3,6.3,64,0.00,,---,0.00,VWS V14.00,2013-06-04 15:03:00,
2013-06-04 10:04:00,71.4,58.6,29.15,NNE,33,2.7,6.3,64,0.00,,---,0.00,VWS V14.00,2013-06-04 15:04:00,
2013-06-04 10:05:00,71.4,58.6,29.15,West,272,2.2,3.6,64,0.00,,---,0.00,VWS V14.00,2013-06-04 15:05:00,
2013-06-04 10:06:00,71.6,57.9,29.15,NNE,13,0.0,2.2,62,0.00,,---,0.00,VWS V14.00,2013-06-04 15:06:00,
2013-06-04 10:07:00,72.1,58.4,29.15,East,93,3.1,5.8,62,0.00,,---,0.00,VWS V14.00,2013-06-04 15:07:00,
2013-06-04 10:08:00,71.8,58.1,29.15,NE,54,4.0,4.0,62,0.00,,---,0.00,VWS V14.00,2013-06-04 15:08:00,
2013-06-04 10:09:00,72.0,58.2,29.15,ENE,62,4.0,5.8,62,0.00,,---,0.00,VWS V14.00,2013-06-04 15:09:00,
2013-06-04 10:10:00,72.0,58.2,29.15,NNE,17,3.1,4.0,62,0.00,,---,0.00,VWS V14.00,2013-06-04 15:10:00,
2013-06-04 10:11:00,72.1,58.4,29.15,WSW,253,2.7,5.8,62,0.00,,---,0.00,VWS V14.00,2013-06-04 15:11:00,
2013-06-04 10:12:00,72.3,58.6,29.15,ENE,73,5.8,5.8,62,0.00,,---,0.00,VWS V14.00,2013-06-04 15:12:00,
2013-06-04 10:13:00,72.3,58.6,29.15,South,187,2.7,5.4,62,0.00,,---,0.00,VWS V14.00,2013-06-04 15:13:00,
2013-06-04 10:14:00,72.3,58.6,29.15,SSW,207,2.7,2.7,62,0.00,,---,0.00,VWS V14.00,2013-06-04 15:14:00,
2013-06-04 10:15:00,72.3,58.6,29.15,SSW,207,2.7,2.7,62,0.00,,---,0.00,VWS V14.00,2013-06-04 15:15:00,
2013-06-04 10:16:00,72.3,58.6,29.15,ENE,73,5.8,5.8,62,0.00,,---,0.00,VWS V14.00,2013-06-04 15:16:00,
2013-06-04 10:17:00,72.3,58.6,29.15,SE,125,3.6,3.6,62,0.00,,---,0.00,VWS V14.00,2013-06-04 15:17:00,
2013-06-04 10:18:00,72.3,58.6,29.15,ENE,73,5.8,5.8,62,0.00,,---,0.00,VWS V14.00,2013-06-04 15:18:00,
2013-06-04 10:19:00,72.3,58.6,29.15,SE,125,3.6,5.8,62,0.00,,---,0.00,VWS V14.00,2013-06-04 15:19:00,
2013-06-04 10:20:00,72.3,58.6,29.15,SE,125,3.6,3.6,62,0.00,,---,0.00,VWS V14.00,2013-06-04 15:20:00,
2013-06-04 10:21:00,72.3,58.6,29.15,SE,125,3.6,3.6,62,0.00,,---,0.00,VWS V14.00,2013-06-04 15:21:00,
2013-06-04 10:22:00,72.3,58.6,29.15,SE,125,3.6,3.6,62,0.00,,---,0.00,VWS V14.00,2013-06-04 15:22:00,
2013-06-04 10:23:00,72.3,58.6,29.15,SE,125,3.6,3.6,62,0.00,,---,0.00,VWS V14.00,2013-06-04 15:23:00,
2013-06-04 10:24:00,72.3,58.6,29.15,SE,125,3.6,3.6,62,0.00,,---,0.00,VWS V14.00,2013-06-04 15:24:00,
2013-06-04 10:25:00,72.3,58.6,29.15,SE,125,3.6,3.6,62,0.00,,---,0.00,VWS V14.00,2013-06-04 15:25:00,
2013-06-04 10:26:00,72.3,58.6,29.15,SE,125,3.6,3.6,62,0.00,,---,0.00,VWS V14.00,2013-06-04 15:26:00,
2013-06-04 10:27:00,72.3,58.6,29.15,NE,39,0.0,0.0,62,0.00,,---,0.00,VWS V14.00,2013-06-04 15:27:00,
2013-06-04 10:28:00,72.3,58.6,29.15,NE,39,0.0,0.0,62,0.00,,---,0.00,VWS V14.00,2013-06-04 15:28:00,
2013-06-04 10:29:00,72.3,58.6,29.15,NE,39,0.0,0.0,62,0.00,,---,0.00,VWS V14.00,2013-06-04 15:29:00,
2013-06-04 10:30:00,72.3,58.6,29.15,NE,39,0.0,0.0,62,0.00,,---,0.00,VWS V14.00,2013-06-04 15:30:00,
2013-06-04 10:31:00,72.3,58.6,29.15,NE,39,0.0,0.0,62,0.00,,---,0.00,VWS V14.00,2013-06-04 15:31:00,
2013-06-04 10:32:00,73.9,60.1,29.15,East,93,2.2,2.2,62,0.00,,---,0.00,VWS V14.00,2013-06-04 15:32:00,
2013-06-04 10:33:00,73.9,60.1,29.15,NE,39,0.0,0.0,62,0.00,,---,0.00,VWS V14.00,2013-06-04 15:33:00,
2013-06-04 10:34:00,73.9,60.1,29.15,NE,39,0.0,0.0,62,0.00,,---,0.00,VWS V14.00,2013-06-04 15:34:00,
2013-06-04 10:35:00,73.9,60.1,29.15,NE,39,0.0,0.0,62,0.00,,---,0.00,VWS V14.00,2013-06-04 15:35:00,
2013-06-04 10:36:00,73.9,60.1,29.15,East,93,2.2,2.2,62,0.00,,---,0.00,VWS V14.00,2013-06-04 15:36:00,
2013-06-04 10:37:00,73.9,60.1,29.15,NE,36,0.0,0.0,62,0.00,,---,0.00,VWS V14.00,2013-06-04 15:37:00,
2013-06-04 10:38:00,73.9,60.1,29.15,NE,36,0.0,2.2,62,0.00,,---,0.00,VWS V14.00,2013-06-04 15:38:00,
2013-06-04 10:39:00,73.9,60.1,29.15,NE,36,0.0,0.0,62,0.00,,---,0.00,VWS V14.00,2013-06-04 15:39:00,
2013-06-04 10:40:00,73.9,60.1,29.15,NE,36,0.0,0.0,62,0.00,,---,0.00,VWS V14.00,2013-06-04 15:40:00,
2013-06-04 10:41:00,73.9,60.1,29.15,NE,36,0.0,0.0,62,0.00,,---,0.00,VWS V14.00,2013-06-04 15:41:00,
2013-06-04 10:42:00,73.9,60.1,29.15,East,85,3.1,3.1,62,0.00,,---,0.00,VWS V14.00,2013-06-04 15:42:00,
2013-06-04 10:43:00,73.9,60.1,29.15,NE,36,0.0,0.0,62,0.00,,---,0.00,VWS V14.00,2013-06-04 15:43:00,
2013-06-04 10:44:00,73.9,60.1,29.15,NE,36,0.0,0.0,62,0.00,,---,0.00,VWS V14.00,2013-06-04 15:44:00,
2013-06-04 10:45:00,73.9,60.1,29.15,East,85,3.1,3.1,62,0.00,,---,0.00,VWS V14.00,2013-06-04 15:45:00,
2013-06-04 10:46:00,73.9,60.1,29.15,East,85,3.1,3.1,62,0.00,,---,0.00,VWS V14.00,2013-06-04 15:46:00,
2013-06-04 10:47:00,73.9,60.1,29.15,ESE,104,2.7,2.7,62,0.00,,---,0.00,VWS V14.00,2013-06-04 15:47:00,
2013-06-04 10:48:00,73.9,60.1,29.15,East,85,3.1,3.1,62,0.00,,---,0.00,VWS V14.00,2013-06-04 15:48:00,
2013-06-04 10:49:00,73.9,60.1,29.15,ESE,104,2.7,3.1,62,0.00,,---,0.00,VWS V14.00,2013-06-04 15:49:00,
2013-06-04 10:50:00,73.9,60.1,29.15,ESE,104,2.7,2.7,62,0.00,,---,0.00,VWS V14.00,2013-06-04 15:50:00,
2013-06-04 10:51:00,73.9,60.1,29.15,ESE,104,2.7,2.7,62,0.00,,---,0.00,VWS V14.00,2013-06-04 15:51:00,
2013-06-04 10:52:00,73.9,60.1,29.15,ESE,102,6.7,6.7,62,0.00,,---,0.00,VWS V14.00,2013-06-04 15:52:00,
2013-06-04 10:53:00,73.9,60.1,29.15,ESE,102,6.7,6.7,62,0.00,,---,0.00,VWS V14.00,2013-06-04 15:53:00,
2013-06-04 10:54:00,73.9,60.1,29.15,ESE,102,6.7,6.7,62,0.00,,---,0.00,VWS V14.00,2013-06-04 15:54:00,
2013-06-04 10:55:00,73.9,60.1,29.15,ESE,102,6.7,6.7,62,0.00,,---,0.00,VWS V14.00,2013-06-04 15:55:00,
2013-06-04 10:56:00,73.9,60.1,29.15,ESE,102,6.7,6.7,62,0.00,,---,0.00,VWS V14.00,2013-06-04 15:56:00,
2013-06-04 10:57:00,73.9,60.1,29.15,South,190,4.0,4.0,62,0.00,,---,0.00,VWS V14.00,2013-06-04 15:57:00,
2013-06-04 10:58:00,73.9,60.1,29.15,ESE,102,6.7,6.7,62,0.00,,---,0.00,VWS V14.00,2013-06-04 15:58:00,
2013-06-04 10:59:00,73.9,60.1,29.15,ESE,102,6.7,6.7,62,0.00,,---,0.00,VWS V14.00,2013-06-04 15:59:00,
2013-06-04 11:00:00,73.9,60.1,29.15,South,190,4.0,6.7,62,0.00,,---,0.00,VWS V14.00,2013-06-04 16:00:00,
2013-06-04 11:01:00,73.9,60.1,29.15,South,190,4.0,4.0,62,0.00,,---,0.00,VWS V14.00,2013-06-04 16:01:00,
2013-06-04 11:02:00,73.9,60.1,29.15,SSW,194,3.1,3.1,62,0.00,,---,0.00,VWS V14.00,2013-06-04 16:02:00,
2013-06-04 11:03:00,73.9,60.1,29.15,SSW,194,3.1,3.1,62,0.00,,---,0.00,VWS V14.00,2013-06-04 16:03:00,
2013-06-04 11:04:00,73.9,60.1,29.15,SSW,194,3.1,3.1,62,0.00,,---,0.00,VWS V14.00,2013-06-04 16:04:00,
2013-06-04 11:05:00,73.9,60.1,29.15,SSW,194,3.1,3.1,62,0.00,,---,0.00,VWS V14.00,2013-06-04 16:05:00,
2013-06-04 11:06:00,73.9,60.1,29.15,SSW,194,3.1,3.1,62,0.00,,---,0.00,VWS V14.00,2013-06-04 16:06:00,
2013-06-04 11:07:00,73.4,59.6,29.15,North,357,2.7,3.1,62,0.00,,---,0.00,VWS V14.00,2013-06-04 16:07:00,
2013-06-04 11:08:00,73.9,60.1,29.15,SSW,194,3.1,3.1,62,0.00,,---,0.00,VWS V14.00,2013-06-04 16:08:00,
2013-06-04 11:09:00,73.4,59.6,29.15,SSW,194,3.1,3.1,62,0.00,,---,0.00,VWS V14.00,2013-06-04 16:09:00,
2013-06-04 11:10:00,73.4,59.6,29.15,SSW,194,3.1,3.1,62,0.00,,---,0.00,VWS V14.00,2013-06-04 16:10:00,
2013-06-04 11:11:00,73.4,59.6,29.15,North,357,2.7,3.1,62,0.00,,---,0.00,VWS V14.00,2013-06-04 16:11:00,
2013-06-04 11:12:00,73.4,59.6,29.12,North,357,2.7,2.7,62,0.00,,---,0.00,VWS V14.00,2013-06-04 16:12:00,
2013-06-04 11:13:00,73.4,59.6,29.15,North,357,2.7,2.7,62,0.00,,---,0.00,VWS V14.00,2013-06-04 16:13:00,
2013-06-04 11:14:00,73.4,59.6,29.12,North,357,2.7,2.7,62,0.00,,---,0.00,VWS V14.00,2013-06-04 16:14:00,
2013-06-04 11:15:00,73.4,59.6,29.12,North,357,2.7,2.7,62,0.00,,---,0.00,VWS V14.00,2013-06-04 16:15:00,
2013-06-04 11:16:00,73.4,59.6,29.12,North,357,2.7,2.7,62,0.00,,---,0.00,VWS V14.00,2013-06-04 16:16:00,
2013-06-04 11:17:00,73.4,59.6,29.12,SE,135,3.1,3.1,62,0.00,,---,0.00,VWS V14.00,2013-06-04 16:17:00,
2013-06-04 11:18:00,73.4,59.6,29.12,North,357,2.7,2.7,62,0.00,,---,0.00,VWS V14.00,2013-06-04 16:18:00,
2013-06-04 11:19:00,73.4,59.6,29.12,SE,135,3.1,3.1,62,0.00,,---,0.00,VWS V14.00,2013-06-04 16:19:00,
2013-06-04 11:20:00,73.4,59.6,29.12,SE,135,3.1,3.1,62,0.00,,---,0.00,VWS V14.00,2013-06-04 16:20:00,
2013-06-04 11:21:00,73.4,59.6,29.12,SE,135,3.1,3.1,62,0.00,,---,0.00,VWS V14.00,2013-06-04 16:21:00,
2013-06-04 11:22:00,73.4,59.6,29.12,ESE,112,5.4,5.4,62,0.00,,---,0.00,VWS V14.00,2013-06-04 16:22:00,
2013-06-04 11:23:00,73.4,59.6,29.12,ESE,112,5.4,5.4,62,0.00,,---,0.00,VWS V14.00,2013-06-04 16:23:00,
2013-06-04 11:24:00,73.4,59.6,29.12,ESE,112,5.4,5.4,62,0.00,,---,0.00,VWS V14.00,2013-06-04 16:24:00,
2013-06-04 11:25:00,73.4,59.6,29.12,ESE,112,5.4,5.4,62,0.00,,---,0.00,VWS V14.00,2013-06-04 16:25:00,
2013-06-04 11:26:00,73.4,59.6,29.12,ESE,112,5.4,5.4,62,0.00,,---,0.00,VWS V14.00,2013-06-04 16:26:00,
2013-06-04 11:27:00,73.4,59.6,29.12,East,95,4.9,4.9,62,0.00,,---,0.00,VWS V14.00,2013-06-04 16:27:00,
2013-06-04 11:28:00,73.4,59.6,29.12,East,95,4.9,5.4,62,0.00,,---,0.00,VWS V14.00,2013-06-04 16:28:00,
2013-06-04 11:29:00,73.4,59.6,29.12,East,95,4.9,4.9,62,0.00,,---,0.00,VWS V14.00,2013-06-04 16:29:00,
2013-06-04 11:30:00,73.4,59.6,29.12,East,95,4.9,4.9,62,0.00,,---,0.00,VWS V14.00,2013-06-04 16:30:00,
2013-06-04 11:31:00,73.4,59.6,29.12,East,95,4.9,4.9,62,0.00,,---,0.00,VWS V14.00,2013-06-04 16:31:00,
2013-06-04 11:32:00,73.4,59.6,29.12,North,6,2.7,2.7,62,0.00,,---,0.00,VWS V14.00,2013-06-04 16:32:00,
2013-06-04 11:33:00,73.4,59.6,29.12,North,6,2.7,4.9,62,0.00,,---,0.00,VWS V14.00,2013-06-04 16:33:00,
2013-06-04 11:34:00,73.4,59.6,29.12,North,6,2.7,2.7,62,0.00,,---,0.00,VWS V14.00,2013-06-04 16:34:00,
2013-06-04 11:35:00,73.4,59.6,29.12,North,6,2.7,2.7,62,0.00,,---,0.00,VWS V14.00,2013-06-04 16:35:00,
2013-06-04 11:36:00,73.4,59.6,29.12,North,6,2.7,2.7,62,0.00,,---,0.00,VWS V14.00,2013-06-04 16:36:00,
2013-06-04 11:37:00,73.4,59.6,29.12,NE,48,3.1,3.1,62,0.00,,---,0.00,VWS V14.00,2013-06-04 16:37:00,
2013-06-04 11:38:00,73.4,59.6,29.12,NE,48,3.1,3.1,62,0.00,,---,0.00,VWS V14.00,2013-06-04 16:38:00,
2013-06-04 11:39:00,73.4,59.6,29.12,NE,48,3.1,3.1,62,0.00,,---,0.00,VWS V14.00,2013-06-04 16:39:00,
2013-06-04 11:40:00,73.4,59.6,29.12,NE,48,3.1,3.1,62,0.00,,---,0.00,VWS V14.00,2013-06-04 16:40:00,
2013-06-04 11:41:00,73.4,59.6,29.12,NE,48,3.1,3.1,62,0.00,,---,0.00,VWS V14.00,2013-06-04 16:41:00,
2013-06-04 11:42:00,73.2,59.4,29.12,SSE,149,0.0,0.0,62,0.00,,---,0.00,VWS V14.00,2013-06-04 16:42:00,
2013-06-04 11:43:00,73.4,59.6,29.12,NE,48,3.1,3.1,62,0.00,,---,0.00,VWS V14.00,2013-06-04 16:43:00,
2013-06-04 11:44:00,73.4,59.6,29.12,NE,37,2.7,3.1,62,0.00,,---,0.00,VWS V14.00,2013-06-04 16:44:00,
2013-06-04 11:45:00,73.4,59.6,29.12,SSE,149,0.0,2.7,62,0.00,,---,0.00,VWS V14.00,2013-06-04 16:45:00,
2013-06-04 11:46:00,73.2,59.4,29.12,SSE,149,0.0,0.0,62,0.00,,---,0.00,VWS V14.00,2013-06-04 16:46:00,
2013-06-04 11:47:00,73.2,59.4,29.12,SSE,149,0.0,0.0,62,0.00,,---,0.00,VWS V14.00,2013-06-04 16:47:00,
2013-06-04 11:48:00,73.2,59.4,29.12,SSE,149,0.0,0.0,62,0.00,,---,0.00,VWS V14.00,2013-06-04 16:48:00,
2013-06-04 11:49:00,73.2,59.4,29.12,SSE,149,0.0,0.0,62,0.00,,---,0.00,VWS V14.00,2013-06-04 16:49:00,
2013-06-04 11:50:00,73.2,59.4,29.12,SSE,149,0.0,0.0,62,0.00,,---,0.00,VWS V14.00,2013-06-04 16:50:00,
2013-06-04 11:51:00,73.2,59.4,29.12,SSE,149,0.0,0.0,62,0.00,,---,0.00,VWS V14.00,2013-06-04 16:51:00,
2013-06-04 11:52:00,73.2,59.4,29.15,East,101,3.1,3.1,62,0.00,,---,0.00,VWS V14.00,2013-06-04 16:52:00,
2013-06-04 11:53:00,73.2,59.4,29.12,SSE,149,0.0,0.0,62,0.00,,---,0.00,VWS V14.00,2013-06-04 16:53:00,
2013-06-04 11:54:00,73.2,59.4,29.12,NNW,345,5.8,5.8,62,0.00,,---,0.00,VWS V14.00,2013-06-04 16:54:00,
2013-06-04 11:55:00,73.2,59.4,29.12,East,101,3.1,5.8,62,0.00,,---,0.00,VWS V14.00,2013-06-04 16:55:00,
2013-06-04 11:56:00,73.2,59.4,29.15,East,101,3.1,3.1,62,0.00,,---,0.00,VWS V14.00,2013-06-04 16:56:00,
2013-06-04 11:57:00,73.2,59.4,29.15,East,101,3.1,3.1,62,0.00,,---,0.00,VWS V14.00,2013-06-04 16:57:00,
2013-06-04 11:58:00,73.2,59.4,29.15,East,101,3.1,3.1,62,0.00,,---,0.00,VWS V14.00,2013-06-04 16:58:00,
2013-06-04 11:59:00,73.2,59.4,29.15,East,101,3.1,3.1,62,0.00,,---,0.00,VWS V14.00,2013-06-04 16:59:00,
2013-06-04 12:00:00,73.2,59.4,29.15,East,101,3.1,3.1,62,0.00,,---,0.00,VWS V14.00,2013-06-04 17:00:00,
2013-06-04 12:01:00,73.2,59.4,29.15,East,101,3.1,3.1,62,0.00,,---,0.00,VWS V14.00,2013-06-04 17:01:00,
2013-06-04 12:02:00,73.2,59.4,29.15,North,10,3.6,3.6,62,0.00,,---,0.00,VWS V14.00,2013-06-04 17:02:00,
2013-06-04 12:03:00,73.2,59.4,29.15,North,0,2.2,3.1,62,0.00,,---,0.00,VWS V14.00,2013-06-04 17:03:00,
2013-06-04 12:04:00,73.2,59.4,29.15,North,0,2.2,2.2,62,0.00,,---,0.00,VWS V14.00,2013-06-04 17:04:00,
2013-06-04 12:05:00,73.2,59.4,29.15,North,0,2.2,2.2,62,0.00,,---,0.00,VWS V14.00,2013-06-04 17:05:00,
2013-06-04 12:06:00,73.2,59.4,29.15,North,10,3.6,3.6,62,0.00,,---,0.00,VWS V14.00,2013-06-04 17:06:00,
2013-06-04 12:07:00,73.2,59.4,29.15,North,10,3.6,3.6,62,0.00,,---,0.00,VWS V14.00,2013-06-04 17:07:00,
2013-06-04 12:08:00,73.2,59.4,29.15,North,10,3.6,3.6,62,0.00,,---,0.00,VWS V14.00,2013-06-04 17:08:00,
2013-06-04 12:09:00,73.2,59.4,29.15,North,10,3.6,3.6,62,0.00,,---,0.00,VWS V14.00,2013-06-04 17:09:00,
2013-06-04 12:10:00,73.2,59.4,29.15,North,10,3.6,3.6,62,0.00,,---,0.00,VWS V14.00,2013-06-04 17:10:00,
2013-06-04 12:11:00,73.2,59.4,29.15,North,4,0.0,3.6,62,0.00,,---,0.00,VWS V14.00,2013-06-04 17:11:00,
2013-06-04 12:12:00,73.2,59.4,29.15,North,4,0.0,0.0,62,0.00,,---,0.00,VWS V14.00,2013-06-04 17:12:00,
2013-06-04 12:13:00,73.2,59.4,29.15,North,4,0.0,0.0,62,0.00,,---,0.00,VWS V14.00,2013-06-04 17:13:00,
2013-06-04 12:14:00,73.2,59.4,29.15,North,4,0.0,0.0,62,0.00,,---,0.00,VWS V14.00,2013-06-04 17:14:00,
2013-06-04 12:15:00,73.2,59.4,29.15,North,4,0.0,0.0,62,0.00,,---,0.00,VWS V14.00,2013-06-04 17:15:00,
2013-06-04 12:16:00,73.2,59.4,29.15,North,4,0.0,0.0,62,0.00,,---,0.00,VWS V14.00,2013-06-04 17:16:00,
2013-06-04 12:17:00,73.2,59.4,29.15,WSW,245,2.7,2.7,62,0.00,,---,0.00,VWS V14.00,2013-06-04 17:17:00,
2013-06-04 12:18:00,73.2,59.4,29.15,NE,52,0.0,0.0,62,0.00,,---,0.00,VWS V14.00,2013-06-04 17:18:00,
2013-06-04 12:19:00,73.2,59.4,29.15,NE,52,0.0,0.0,62,0.00,,---,0.00,VWS V14.00,2013-06-04 17:19:00,
2013-06-04 12:20:00,73.2,59.4,29.15,WSW,245,2.7,2.7,62,0.00,,---,0.00,VWS V14.00,2013-06-04 17:20:00,
2013-06-04 12:21:00,73.2,59.4,29.15,WSW,245,2.7,2.7,62,0.00,,---,0.00,VWS V14.00,2013-06-04 17:21:00,
2013-06-04 12:22:00,75.2,60.4,29.12,WSW,245,2.7,2.7,60,0.00,,---,0.00,VWS V14.00,2013-06-04 17:22:00,
2013-06-04 12:23:00,75.2,60.4,29.15,WSW,245,2.7,2.7,60,0.00,,---,0.00,VWS V14.00,2013-06-04 17:23:00,
2013-06-04 12:24:00,75.2,60.4,29.15,WSW,245,2.7,2.7,60,0.00,,---,0.00,VWS V14.00,2013-06-04 17:24:00,
2013-06-04 12:25:00,75.2,60.4,29.12,WSW,245,2.7,2.7,60,0.00,,---,0.00,VWS V14.00,2013-06-04 17:25:00,
2013-06-04 12:26:00,75.2,60.4,29.12,WSW,245,2.7,2.7,60,0.00,,---,0.00,VWS V14.00,2013-06-04 17:26:00,
2013-06-04 12:27:00,75.2,60.4,29.12,NE,41,2.7,2.7,60,0.00,,---,0.00,VWS V14.00,2013-06-04 17:27:00,
2013-06-04 12:28:00,75.2,60.4,29.12,North,6,3.1,3.1,60,0.00,,---,0.00,VWS V14.00,2013-06-04 17:28:00,
2013-06-04 12:29:00,75.2,60.4,29.12,NE,41,2.7,3.1,60,0.00,,---,0.00,VWS V14.00,2013-06-04 17:29:00,
2013-06-04 12:30:00,75.2,60.4,29.12,NE,41,2.7,2.7,60,0.00,,---,0.00,VWS V14.00,2013-06-04 17:30:00,
2013-06-04 12:31:00,75.2,60.4,29.12,NE,41,2.7,2.7,60,0.00,,---,0.00,VWS V14.00,2013-06-04 17:31:00,
2013-06-04 12:32:00,75.2,60.4,29.12,NE,41,2.7,2.7,60,0.00,,---,0.00,VWS V14.00,2013-06-04 17:32:00,
2013-06-04 12:33:00,75.2,60.4,29.12,NE,41,2.7,2.7,60,0.00,,---,0.00,VWS V14.00,2013-06-04 17:33:00,
2013-06-04 12:34:00,75.2,60.4,29.12,NE,41,2.7,2.7,60,0.00,,---,0.00,VWS V14.00,2013-06-04 17:34:00,
2013-06-04 12:35:00,75.2,60.4,29.12,NE,41,2.7,2.7,60,0.00,,---,0.00,VWS V14.00,2013-06-04 17:35:00,
2013-06-04 12:36:00,75.2,60.4,29.12,NE,41,2.7,2.7,60,0.00,,---,0.00,VWS V14.00,2013-06-04 17:36:00,
2013-06-04 12:37:00,75.2,60.4,29.12,North,353,5.4,5.4,60,0.00,,---,0.00,VWS V14.00,2013-06-04 17:37:00,
2013-06-04 12:38:00,75.2,60.4,29.12,North,353,5.4,5.4,60,0.00,,---,0.00,VWS V14.00,2013-06-04 17:38:00,
2013-06-04 15:51:00,79.7,64.6,29.09,NNW,346,3.1,3.1,60,0.00,,---,0.00,VWS V14.00,2013-06-04 20:51:00,
2013-06-04 15:56:00,80.8,64.6,29.09,North,357,0.0,0.0,58,0.00,,---,0.00,VWS V14.00,2013-06-04 20:56:00,
2013-06-04 16:01:00,82.0,65.8,29.09,NNW,348,0.0,0.0,58,0.00,,---,0.00,VWS V14.00,2013-06-04 21:01:00,
2013-06-04 16:07:00,83.3,67.0,29.09,North,350,3.6,3.6,58,0.00,,---,0.00,VWS V14.00,2013-06-04 21:07:00,
2013-06-04 16:12:00,83.8,67.5,29.09,ENE,75,7.2,7.2,58,0.00,,---,0.00,VWS V14.00,2013-06-04 21:12:00,
2013-06-04 16:17:00,82.0,65.8,29.09,East,85,0.0,0.0,58,0.00,,---,0.00,VWS V14.00,2013-06-04 21:17:00,
2013-06-04 16:22:00,83.7,67.3,29.09,NE,42,0.0,0.0,58,0.00,,---,0.00,VWS V14.00,2013-06-04 21:22:00,
2013-06-04 16:27:00,83.1,66.8,29.09,East,81,2.7,3.1,58,0.00,,---,0.00,VWS V14.00,2013-06-04 21:27:00,
2013-06-04 16:32:00,82.0,65.8,29.09,North,0,2.7,4.9,58,0.00,,---,0.00,VWS V14.00,2013-06-04 21:32:00,
2013-06-04 16:37:00,83.5,67.2,29.09,NE,51,3.6,6.3,58,0.00,,---,0.00,VWS V14.00,2013-06-04 21:37:00,
2013-06-04 16:42:00,79.3,64.3,29.09,WNW,300,0.0,0.0,60,0.00,,---,0.00,VWS V14.00,2013-06-04 21:42:00,
2013-06-04 16:47:00,78.6,63.6,29.09,NNW,341,0.0,0.0,60,0.00,,---,0.00,VWS V14.00,2013-06-04 21:47:00,
2013-06-04 16:52:00,77.0,62.1,29.09,SW,219,2.7,3.1,60,0.00,,---,0.00,VWS V14.00,2013-06-04 21:52:00,
2013-06-04 16:57:00,75.9,61.0,29.09,ESE,110,4.0,4.9,60,0.00,,---,0.00,VWS V14.00,2013-06-04 21:57:00,
2013-06-04 17:01:00,75.2,60.4,29.09,North,357,2.7,4.9,60,0.00,,---,0.00,VWS V14.00,2013-06-04 22:01:00,
2013-06-04 17:06:00,74.7,60.8,29.09,ESE,121,0.0,2.7,62,0.00,,---,0.00,VWS V14.00,2013-06-04 22:06:00,
2013-06-04 17:12:00,74.7,60.8,29.09,NE,41,0.0,2.2,62,0.00,,---,0.00,VWS V14.00,2013-06-04 22:12:00,
2013-06-04 17:17:00,74.7,60.8,29.09,East,100,0.0,3.6,62,0.00,,---,0.00,VWS V14.00,2013-06-04 22:17:00,
2013-06-04 17:22:00,74.7,60.8,29.09,East,79,0.0,0.0,62,0.00,,---,0.00,VWS V14.00,2013-06-04 22:22:00,
2013-06-04 17:27:00,74.7,60.8,29.09,SE,128,0.0,0.0,62,0.00,,---,0.00,VWS V14.00,2013-06-04 22:27:00,
2013-06-04 17:32:00,74.3,60.5,29.09,NE,50,0.0,0.0,62,0.00,,---,0.00,VWS V14.00,2013-06-04 22:32:00,
2013-06-04 17:37:00,73.9,60.1,29.09,SSW,206,0.0,0.0,62,0.00,,---,0.00,VWS V14.00,2013-06-04 22:37:00,
2013-06-04 17:42:00,74.3,60.5,29.09,ESE,118,0.0,0.0,62,0.00,,---,0.00,VWS V14.00,2013-06-04 22:42:00,
2013-06-04 17:47:00,74.8,61.0,29.09,ESE,118,0.0,0.0,62,0.00,,---,0.00,VWS V14.00,2013-06-04 22:47:00,
2013-06-04 17:52:00,74.8,61.0,29.09,ESE,118,0.0,0.0,62,0.00,,---,0.00,VWS V14.00,2013-06-04 22:52:00,
2013-06-04 17:57:00,75.4,60.5,29.09,ESE,118,0.0,0.0,60,0.00,,---,0.00,VWS V14.00,2013-06-04 22:57:00,
2013-06-04 18:02:00,75.0,61.1,29.09,ESE,118,0.0,0.0,62,0.00,,---,0.00,VWS V14.00,2013-06-04 23:02:00,
2013-06-04 18:07:00,74.5,60.6,29.09,ESE,118,0.0,0.0,62,0.00,,---,0.00,VWS V14.00,2013-06-04 23:07:00,
2013-06-04 18:12:00,74.5,60.6,29.06,ESE,118,0.0,0.0,62,0.00,,---,0.00,VWS V14.00,2013-06-04 23:12:00,
2013-06-04 18:17:00,74.5,60.6,29.06,ESE,118,0.0,0.0,62,0.00,,---,0.00,VWS V14.00,2013-06-04 23:17:00,
2013-06-04 18:22:00,73.4,59.6,29.06,ESE,118,0.0,0.0,62,0.00,,---,0.00,VWS V14.00,2013-06-04 23:22:00,
2013-06-04 18:27:00,73.4,59.6,29.06,ESE,118,0.0,0.0,62,0.00,,---,0.00,VWS V14.00,2013-06-04 23:27:00,
2013-06-04 18:32:00,73.0,59.3,29.06,ESE,118,0.0,0.0,62,0.00,,---,0.00,VWS V14.00,2013-06-04 23:32:00,
2013-06-04 18:37:00,73.0,59.3,29.06,ESE,118,0.0,0.0,62,0.00,,---,0.00,VWS V14.00,2013-06-04 23:37:00,
2013-06-04 18:42:00,72.7,58.9,29.06,ESE,118,0.0,0.0,62,0.00,,---,0.00,VWS V14.00,2013-06-04 23:42:00,
2013-06-04 18:47:00,72.3,58.6,29.06,ESE,118,0.0,0.0,62,0.00,,---,0.00,VWS V14.00,2013-06-04 23:47:00,
2013-06-04 18:52:00,72.3,58.6,29.06,ESE,118,0.0,0.0,62,0.00,,---,0.00,VWS V14.00,2013-06-04 23:52:00,
2013-06-04 18:57:00,71.8,58.1,29.06,ESE,118,0.0,0.0,62,0.00,,---,0.00,VWS V14.00,2013-06-04 23:57:00,
2013-06-04 19:02:00,71.8,58.1,29.06,ESE,118,0.0,0.0,62,0.00,,---,0.00,VWS V14.00,2013-06-05 00:02:00,
2013-06-04 19:07:00,71.4,58.6,29.06,ESE,118,0.0,0.0,64,0.00,,---,0.00,VWS V14.00,2013-06-05 00:07:00,
2013-06-04 19:12:00,71.4,58.6,29.06,ESE,118,0.0,0.0,64,0.00,,---,0.00,VWS V14.00,2013-06-05 00:12:00,
2013-06-04 19:17:00,70.9,58.1,29.06,ESE,118,0.0,0.0,64,0.00,,---,0.00,VWS V14.00,2013-06-05 00:17:00,
2013-06-04 19:22:00,70.2,57.4,29.06,ESE,118,0.0,0.0,64,0.00,,---,0.00,VWS V14.00,2013-06-05 00:22:00,
2013-06-04 19:27:00,70.0,57.3,29.09,ESE,118,0.0,0.0,64,0.00,,---,0.00,VWS V14.00,2013-06-05 00:27:00,
2013-06-04 19:32:00,70.0,57.3,29.09,ESE,118,0.0,0.0,64,0.00,,---,0.00,VWS V14.00,2013-06-05 00:32:00,
2013-06-04 19:37:00,70.0,57.3,29.09,ESE,118,0.0,0.0,64,0.00,,---,0.00,VWS V14.00,2013-06-05 00:37:00,
2013-06-04 19:42:00,69.4,56.8,29.09,ESE,118,0.0,0.0,64,0.00,,---,0.00,VWS V14.00,2013-06-05 00:42:00,
2013-06-04 19:47:00,68.4,55.7,29.09,ESE,118,0.0,0.0,64,0.00,,---,0.00,VWS V14.00,2013-06-05 00:47:00,
2013-06-04 19:52:00,68.4,55.7,29.09,ESE,118,0.0,0.0,64,0.00,,---,0.00,VWS V14.00,2013-06-05 00:52:00,
2013-06-04 19:57:00,67.6,55.0,29.06,ESE,118,0.0,0.0,64,0.00,,---,0.00,VWS V14.00,2013-06-05 00:57:00,
2013-06-04 20:02:00,67.6,55.0,29.06,ESE,118,0.0,0.0,64,0.00,,---,0.00,VWS V14.00,2013-06-05 01:02:00,
2013-06-04 20:07:00,66.9,54.4,29.06,ESE,118,0.0,0.0,64,0.00,,---,0.00,VWS V14.00,2013-06-05 01:07:00,
2013-06-04 20:12:00,66.9,54.4,29.06,ESE,118,0.0,0.0,64,0.00,,---,0.00,VWS V14.00,2013-06-05 01:12:00,
2013-06-04 20:17:00,66.4,53.8,29.06,ESE,118,0.0,0.0,64,0.00,,---,0.00,VWS V14.00,2013-06-05 01:17:00,
2013-06-04 20:22:00,65.8,54.2,29.06,ESE,118,0.0,0.0,66,0.00,,---,0.00,VWS V14.00,2013-06-05 01:22:00,
2013-06-04 20:27:00,65.8,54.2,29.06,ESE,118,0.0,0.0,66,0.00,,---,0.00,VWS V14.00,2013-06-05 01:27:00,
2013-06-04 20:32:00,65.8,54.2,29.06,ESE,118,0.0,0.0,66,0.00,,---,0.00,VWS V14.00,2013-06-05 01:32:00,
2013-06-04 20:37:00,65.8,54.2,29.06,ESE,118,0.0,0.0,66,0.00,,---,0.00,VWS V14.00,2013-06-05 01:37:00,
2013-06-04 20:42:00,65.8,54.2,29.06,ESE,118,0.0,0.0,66,0.00,,---,0.00,VWS V14.00,2013-06-05 01:42:00,
2013-06-04 20:47:00,65.8,54.2,29.06,ESE,118,0.0,0.0,66,0.00,,---,0.00,VWS V14.00,2013-06-05 01:47:00,
2013-06-04 20:52:00,65.8,54.2,29.06,ESE,118,0.0,0.0,66,0.00,,---,0.00,VWS V14.00,2013-06-05 01:52:00,
2013-06-04 20:57:00,65.8,54.2,29.06,ESE,118,0.0,0.0,66,0.00,,---,0.00,VWS V14.00,2013-06-05 01:57:00,
2013-06-04 21:02:00,65.8,54.2,29.06,ESE,118,0.0,0.0,66,0.00,,---,0.00,VWS V14.00,2013-06-05 02:02:00,
2013-06-04 21:07:00,65.8,54.2,29.06,NE,52,0.0,0.0,66,0.00,,---,0.00,VWS V14.00,2013-06-05 02:07:00,
2013-06-04 21:12:00,65.8,54.2,29.09,NE,52,0.0,0.0,66,0.00,,---,0.00,VWS V14.00,2013-06-05 02:12:00,
2013-06-04 21:17:00,65.8,54.2,29.09,NE,52,0.0,0.0,66,0.00,,---,0.00,VWS V14.00,2013-06-05 02:17:00,
2013-06-04 21:22:00,65.8,54.2,29.09,NE,52,0.0,0.0,66,0.00,,---,0.00,VWS V14.00,2013-06-05 02:22:00,
2013-06-04 21:27:00,65.8,54.2,29.09,NE,52,0.0,0.0,66,0.00,,---,0.00,VWS V14.00,2013-06-05 02:27:00,
2013-06-04 21:32:00,65.8,54.2,29.09,NE,52,0.0,0.0,66,0.00,,---,0.00,VWS V14.00,2013-06-05 02:32:00,
2013-06-04 21:37:00,65.8,54.2,29.09,NE,52,0.0,0.0,66,0.00,,---,0.00,VWS V14.00,2013-06-05 02:37:00,
2013-06-04 21:42:00,65.8,54.2,29.09,NE,52,0.0,0.0,66,0.00,,---,0.00,VWS V14.00,2013-06-05 02:42:00,
2013-06-04 21:47:00,65.8,54.2,29.09,NE,52,0.0,0.0,66,0.00,,---,0.00,VWS V14.00,2013-06-05 02:47:00,
2013-06-04 21:52:00,65.8,54.2,29.09,NE,52,0.0,0.0,66,0.00,,---,0.00,VWS V14.00,2013-06-05 02:52:00,
2013-06-04 21:57:00,65.8,54.2,29.09,NE,52,0.0,0.0,66,0.00,,---,0.00,VWS V14.00,2013-06-05 02:57:00,
2013-06-04 22:02:00,65.8,54.2,29.09,NE,52,0.0,0.0,66,0.00,,---,0.00,VWS V14.00,2013-06-05 03:02:00,
2013-06-04 22:07:00,65.8,54.2,29.09,NE,52,0.0,0.0,66,0.00,,---,0.00,VWS V14.00,2013-06-05 03:07:00,